GFSWCAN_prec_precacc12_246.txt.gz
Total_Precipitation_Accumulation
0.09 0.12 0.13 0.12 0.10 0.07 0.06 0.05 0.13 0.39 0.48 0.63 0.71 0.78 0.77 0.53 0.42 0.68 1.10 0.57 0.29 0.30 0.25 0.09 0.02 0.03 0.04 0.08 0.16 0.12 0.10 0.15 0.25 0.32 0.32 0.18 0.06 0.01 0.00 0.00 0.00 0.01 0.01 0.01 0.01 0.05 0.04 0.00 0.00 0.00 0.00 0.00 0.00 0.00
0.13 0.10 0.10 0.11 0.10 0.07 0.05 0.04 0.11 0.35 0.48 0.58 0.78 0.78 0.86 0.68 0.56 0.49 0.72 0.73 0.54 0.30 0.34 0.25 0.10 0.07 0.07 0.06 0.09 0.12 0.23 0.10 0.19 0.26 0.18 0.09 0.06 0.02 0.00 0.00 0.01 0.07 0.07 0.02 0.01 0.02 0.00 0.00 0.01 0.02 0.00 0.00 0.00 0.00
0.09 0.09 0.10 0.08 0.07 0.04 0.03 0.02 0.06 0.31 0.47 0.52 0.85 0.97 0.75 0.66 0.55 0.48 0.62 0.44 0.72 0.92 0.65 0.50 0.33 0.11 0.06 0.04 0.08 0.20 0.32 0.22 0.13 0.17 0.22 0.28 0.23 0.13 0.06 0.03 0.02 0.03 0.06 0.11 0.12 0.05 0.01 0.01 0.01 0.01 0.01 0.01 0.01 0.01
0.06 0.06 0.05 0.04 0.03 0.01 0.00 0.00 0.04 0.38 0.40 0.57 0.99 1.24 0.91 0.74 0.62 0.53 0.75 0.62 0.51 0.79 0.83 0.79 0.54 0.28 0.13 0.10 0.09 0.15 0.19 0.23 0.25 0.28 0.37 0.62 0.55 0.34 0.25 0.17 0.10 0.05 0.08 0.13 0.16 0.10 0.06 0.05 0.05 0.10 0.10 0.07 0.06 0.05
0.04 0.04 0.03 0.04 0.02 0.00 0.00 0.02 0.18 0.31 0.34 0.62 0.97 1.10 0.77 0.58 0.56 0.61 0.82 0.86 0.52 0.48 0.67 0.66 0.57 0.47 0.19 0.14 0.18 0.18 0.24 0.31 0.40 0.51 0.74 0.76 0.48 0.30 0.22 0.15 0.06 0.05 0.15 0.24 0.25 0.13 0.13 0.12 0.11 0.10 0.07 0.04 0.03 0.02
0.04 0.06 0.04 0.03 0.01 0.00 0.01 0.04 0.16 0.18 0.39 0.65 0.89 0.93 0.52 0.43 0.55 0.66 0.97 1.04 0.62 0.35 0.47 0.55 0.65 0.59 0.36 0.17 0.21 0.27 0.29 0.36 0.46 0.59 0.67 0.49 0.31 0.22 0.23 0.12 0.01 0.02 0.05 0.07 0.08 0.08 0.09 0.07 0.06 0.06 0.05 0.03 0.03 0.02
0.04 0.07 0.05 0.02 0.01 0.01 0.01 0.03 0.09 0.18 0.37 0.59 0.77 0.80 0.55 0.49 0.67 0.73 0.66 0.78 0.59 0.45 0.53 0.57 0.49 0.49 0.48 0.28 0.25 0.36 0.41 0.40 0.46 0.52 0.46 0.30 0.20 0.16 0.18 0.07 0.01 0.00 0.00 0.01 0.01 0.01 0.01 0.00 0.00 0.00 0.00 0.00 0.00 0.00
0.03 0.04 0.04 0.03 0.01 0.01 0.01 0.01 0.04 0.15 0.25 0.45 0.59 0.73 0.71 0.54 0.55 0.44 0.32 0.27 0.31 0.44 0.56 0.57 0.44 0.48 0.43 0.37 0.32 0.26 0.35 0.53 0.53 0.41 0.31 0.22 0.21 0.17 0.11 0.01 0.00 0.00 0.00 0.00 0.00 0.00 0.00 0.00 0.00 0.00 0.00 0.00 0.00 0.00
0.03 0.02 0.02 0.01 0.00 0.00 0.01 0.01 0.02 0.03 0.10 0.20 0.28 0.36 0.30 0.31 0.44 0.49 0.34 0.22 0.24 0.37 0.50 0.35 0.21 0.26 0.31 0.31 0.27 0.23 0.16 0.28 0.38 0.34 0.24 0.14 0.15 0.10 0.03 0.00 0.00 0.00 0.01 0.01 0.00 0.00 0.00 0.00 0.00 0.00 0.00 0.00 0.00 0.00
0.03 0.02 0.02 0.01 0.01 0.02 0.02 0.01 0.01 0.02 0.03 0.07 0.12 0.22 0.36 0.39 0.31 0.21 0.17 0.18 0.32 0.36 0.35 0.28 0.14 0.14 0.19 0.22 0.14 0.21 0.18 0.16 0.14 0.16 0.19 0.15 0.10 0.03 0.01 0.00 0.00 0.00 0.00 0.00 0.00 0.00 0.00 0.00 0.00 0.00 0.00 0.00 0.00 0.00
0.12 0.06 0.04 0.05 0.03 0.03 0.04 0.04 0.04 0.03 0.03 0.04 0.08 0.19 0.17 0.08 0.06 0.08 0.11 0.16 0.20 0.23 0.22 0.28 0.22 0.18 0.12 0.18 0.11 0.06 0.12 0.14 0.08 0.07 0.05 0.06 0.06 0.04 0.02 0.01 0.00 0.00 0.00 0.00 0.00 0.00 0.00 0.00 0.00 0.00 0.00 0.00 0.01 0.00
0.04 0.08 0.08 0.07 0.08 0.10 0.10 0.08 0.05 0.05 0.02 0.01 0.02 0.08 0.02 0.01 0.02 0.04 0.06 0.08 0.07 0.10 0.08 0.10 0.14 0.08 0.06 0.05 0.09 0.06 0.04 0.05 0.07 0.03 0.02 0.02 0.01 0.00 0.00 0.00 0.00 0.00 0.00 0.00 0.00 0.00 0.00 0.00 0.00 0.00 0.00 0.00 0.00 0.00
0.00 0.01 0.02 0.05 0.08 0.08 0.04 0.04 0.02 0.00 0.01 0.01 0.00 0.02 0.00 0.00 0.00 0.02 0.02 0.02 0.06 0.03 0.03 0.03 0.04 0.02 0.00 0.00 0.00 0.00 0.00 0.00 0.00 0.01 0.00 0.00 0.00 0.00 0.00 0.00 0.00 0.00 0.00 0.00 0.00 0.00 0.00 0.01 0.00 0.00 0.00 0.00 0.00 0.00
0.00 0.00 0.00 0.01 0.03 0.02 0.00 0.00 0.00 0.00 0.02 0.03 0.00 0.00 0.01 0.01 0.04 0.07 0.04 0.03 0.03 0.01 0.02 0.01 0.00 0.00 0.00 0.00 0.00 0.00 0.00 0.00 0.00 0.00 0.00 0.00 0.00 0.00 0.00 0.00 0.00 0.00 0.00 0.00 0.00 0.00 0.00 0.00 0.00 0.00 0.00 0.00 0.00 0.00
0.00 0.00 0.00 0.00 0.00 0.00 0.00 0.00 0.00 0.00 0.00 0.00 0.01 0.01 0.05 0.08 0.04 0.04 0.06 0.04 0.02 0.02 0.00 0.00 0.00 0.00 0.00 0.00 0.00 0.00 0.00 0.00 0.00 0.00 0.01 0.00 0.00 0.00 0.00 0.00 0.00 0.00 0.00 0.00 0.00 0.00 0.00 0.00 0.00 0.00 0.00 0.00 0.00 0.00
0.00 0.00 0.00 0.00 0.00 0.00 0.00 0.00 0.00 0.00 0.00 0.00 0.00 0.01 0.01 0.00 0.00 0.00 0.01 0.02 0.04 0.03 0.00 0.00 0.00 0.00 0.00 0.00 0.00 0.00 0.00 0.00 0.00 0.01 0.00 0.00 0.00 0.00 0.00 0.00 0.00 0.00 0.00 0.00 0.00 0.00 0.00 0.00 0.00 0.00 0.00 0.00 0.00 0.00
0.00 0.00 0.00 0.00 0.00 0.00 0.00 0.00 0.00 0.00 0.00 0.00 0.00 0.00 0.01 0.00 0.00 0.00 0.00 0.00 0.00 0.00 0.00 0.00 0.00 0.00 0.00 0.00 0.00 0.00 0.00 0.00 0.01 0.00 0.00 0.00 0.00 0.00 0.00 0.00 0.00 0.00 0.00 0.00 0.00 0.00 0.00 0.00 0.00 0.00 0.00 0.00 0.00 0.00
0.00 0.00 0.00 0.00 0.00 0.00 0.00 0.00 0.00 0.00 0.00 0.00 0.00 0.00 0.00 0.00 0.00 0.00 0.00 0.00 0.00 0.00 0.00 0.01 0.02 0.00 0.00 0.00 0.00 0.00 0.01 0.00 0.00 0.00 0.00 0.00 0.00 0.00 0.00 0.00 0.00 0.00 0.00 0.00 0.00 0.00 0.00 0.00 0.00 0.00 0.00 0.00 0.00 0.00
0.00 0.00 0.00 0.00 0.00 0.00 0.00 0.00 0.00 0.00 0.00 0.00 0.00 0.00 0.00 0.00 0.00 0.00 0.00 0.00 0.00 0.00 0.00 0.00 0.00 0.00 0.00 0.00 0.00 0.00 0.01 0.01 0.00 0.00 0.00 0.00 0.00 0.00 0.00 0.00 0.00 0.00 0.00 0.00 0.00 0.00 0.00 0.00 0.00 0.00 0.00 0.00 0.00 0.00
0.00 0.00 0.00 0.00 0.00 0.00 0.00 0.00 0.00 0.00 0.00 0.00 0.00 0.00 0.00 0.00 0.00 0.00 0.00 0.00 0.00 0.00 0.00 0.00 0.00 0.00 0.00 0.00 0.00 0.00 0.00 0.00 0.00 0.00 0.00 0.00 0.00 0.00 0.00 0.00 0.00 0.00 0.00 0.00 0.00 0.00 0.00 0.00 0.00 0.00 0.00 0.00 0.00 0.00
0.00 0.00 0.00 0.00 0.00 0.00 0.00 0.00 0.00 0.00 0.00 0.00 0.00 0.00 0.00 0.00 0.00 0.00 0.00 0.00 0.01 0.01 0.00 0.00 0.00 0.00 0.00 0.00 0.00 0.00 0.00 0.00 0.00 0.00 0.00 0.00 0.00 0.00 0.00 0.00 0.00 0.00 0.00 0.00 0.00 0.00 0.00 0.00 0.00 0.00 0.00 0.00 0.00 0.00
0.00 0.00 0.00 0.00 0.00 0.00 0.00 0.00 0.00 0.00 0.00 0.00 0.00 0.00 0.00 0.00 0.00 0.00 0.00 0.00 0.00 0.00 0.00 0.00 0.00 0.00 0.00 0.00 0.00 0.00 0.00 0.00 0.00 0.00 0.00 0.00 0.00 0.00 0.00 0.00 0.00 0.00 0.00 0.00 0.00 0.00 0.00 0.00 0.00 0.00 0.00 0.00 0.00 0.00
0.00 0.00 0.00 0.00 0.00 0.00 0.00 0.00 0.00 0.00 0.00 0.00 0.00 0.00 0.00 0.00 0.00 0.01 0.01 0.00 0.00 0.00 0.00 0.00 0.00 0.01 0.00 0.00 0.00 0.00 0.00 0.00 0.00 0.00 0.00 0.00 0.00 0.00 0.00 0.00 0.00 0.00 0.00 0.01 0.00 0.00 0.00 0.00 0.00 0.00 0.00 0.00 0.01 0.01
0.00 0.00 0.00 0.00 0.00 0.00 0.00 0.00 0.00 0.00 0.00 0.00 0.00 0.00 0.00 0.00 0.01 0.02 0.01 0.00 0.00 0.00 0.00 0.00 0.00 0.01 0.00 0.00 0.00 0.00 0.00 0.00 0.00 0.00 0.00 0.00 0.00 0.00 0.00 0.00 0.00 0.00 0.00 0.00 0.00 0.00 0.00 0.00 0.00 0.00 0.00 0.00 0.01 0.01
0.01 0.00 0.00 0.00 0.00 0.00 0.00 0.00 0.00 0.00 0.00 0.00 0.00 0.00 0.00 0.00 0.01 0.00 0.00 0.00 0.00 0.00 0.00 0.00 0.00 0.01 0.00 0.00 0.00 0.00 0.00 0.00 0.00 0.00 0.00 0.00 0.00 0.00 0.00 0.00 0.00 0.00 0.00 0.00 0.00 0.00 0.00 0.00 0.00 0.00 0.00 0.00 0.00 0.00
0.01 0.00 0.00 0.00 0.00 0.00 0.00 0.00 0.00 0.00 0.00 0.00 0.00 0.00 0.00 0.00 0.00 0.00 0.00 0.00 0.00 0.00 0.00 0.00 0.00 0.00 0.00 0.00 0.00 0.00 0.00 0.00 0.00 0.00 0.00 0.00 0.00 0.00 0.00 0.00 0.01 0.02 0.00 0.00 0.00 0.00 0.00 0.00 0.00 0.00 0.00 0.00 0.00 0.00
0.01 0.00 0.00 0.00 0.00 0.00 0.00 0.00 0.00 0.00 0.00 0.00 0.00 0.00 0.00 0.00 0.00 0.00 0.00 0.00 0.00 0.00 0.00 0.00 0.00 0.00 0.00 0.00 0.00 0.00 0.00 0.00 0.00 0.00 0.00 0.00 0.00 0.00 0.00 0.00 0.00 0.00 0.00 0.00 0.00 0.00 0.00 0.00 0.00 0.00 0.00 0.00 0.00 0.00
0.00 0.00 0.00 0.00 0.00 0.00 0.00 0.00 0.00 0.00 0.00 0.00 0.00 0.00 0.00 0.00 0.00 0.00 0.00 0.00 0.00 0.00 0.00 0.00 0.00 0.00 0.00 0.00 0.00 0.00 0.00 0.00 0.00 0.00 0.00 0.01 0.01 0.00 0.00 0.00 0.00 0.00 0.00 0.00 0.00 0.00 0.00 0.00 0.00 0.00 0.00 0.00 0.00 0.00
0.01 0.00 0.00 0.00 0.00 0.00 0.00 0.00 0.00 0.00 0.00 0.00 0.00 0.00 0.00 0.00 0.00 0.00 0.00 0.00 0.00 0.00 0.00 0.00 0.00 0.00 0.00 0.00 0.00 0.00 0.00 0.00 0.00 0.01 0.01 0.02 0.03 0.03 0.01 0.00 0.00 0.00 0.00 0.00 0.00 0.00 0.00 0.00 0.00 0.00 0.00 0.00 0.00 0.00
0.00 0.00 0.01 0.00 0.00 0.00 0.00 0.00 0.00 0.00 0.00 0.00 0.00 0.00 0.00 0.00 0.00 0.00 0.00 0.00 0.00 0.00 0.00 0.00 0.00 0.00 0.00 0.00 0.01 0.03 0.02 0.00 0.00 0.00 0.00 0.00 0.00 0.00 0.00 0.00 0.00 0.00 0.00 0.00 0.00 0.00 0.00 0.00 0.00 0.00 0.00 0.00 0.00 0.00
0.01 0.01 0.01 0.01 0.01 0.00 0.00 0.00 0.00 0.00 0.00 0.00 0.00 0.00 0.00 0.00 0.00 0.00 0.00 0.00 0.00 0.00 0.00 0.00 0.00 0.00 0.00 0.02 0.04 0.04 0.05 0.04 0.01 0.00 0.00 0.00 0.00 0.00 0.00 0.00 0.00 0.00 0.00 0.00 0.00 0.00 0.00 0.00 0.00 0.00 0.00 0.00 0.00 0.00
0.01 0.01 0.02 0.02 0.02 0.01 0.00 0.00 0.00 0.00 0.00 0.00 0.00 0.00 0.00 0.00 0.00 0.01 0.01 0.00 0.00 0.00 0.00 0.00 0.00 0.00 0.00 0.00 0.02 0.05 0.04 0.03 0.01 0.01 0.02 0.01 0.00 0.00 0.00 0.00 0.00 0.00 0.00 0.00 0.00 0.00 0.00 0.00 0.00 0.00 0.00 0.00 0.00 0.00
0.01 0.01 0.02 0.03 0.06 0.06 0.01 0.00 0.01 0.01 0.01 0.00 0.00 0.00 0.00 0.00 0.01 0.03 0.02 0.01 0.01 0.01 0.00 0.00 0.00 0.00 0.00 0.00 0.01 0.03 0.03 0.05 0.06 0.03 0.02 0.01 0.00 0.00 0.00 0.00 0.00 0.00 0.00 0.00 0.00 0.00 0.00 0.00 0.00 0.00 0.00 0.00 0.00 0.00

GFSWCAN_prec_precacc12_252.txt.gz
Total_Precipitation_Accumulation
0.04 0.07 0.09 0.09 0.07 0.07 0.06 0.07 0.09 0.11 0.13 0.15 0.17 0.16 0.15 0.14 0.16 0.40 0.71 0.42 0.34 0.48 0.28 0.07 0.02 0.03 0.04 0.08 0.17 0.12 0.07 0.08 0.24 0.51 0.58 0.29 0.15 0.08 0.09 0.04 0.02 0.03 0.04 0.02 0.01 0.01 0.00 0.00 0.00 0.00 0.00 0.00 0.00 0.00
0.08 0.08 0.07 0.08 0.07 0.07 0.05 0.05 0.10 0.11 0.12 0.16 0.18 0.19 0.19 0.18 0.20 0.34 0.66 0.53 0.45 0.48 0.46 0.17 0.06 0.05 0.06 0.05 0.08 0.11 0.27 0.17 0.29 0.36 0.27 0.18 0.09 0.09 0.09 0.08 0.02 0.03 0.01 0.00 0.00 0.00 0.00 0.00 0.00 0.00 0.00 0.00 0.00 0.00
0.08 0.09 0.10 0.06 0.04 0.03 0.04 0.04 0.04 0.06 0.15 0.18 0.26 0.37 0.33 0.28 0.21 0.33 0.57 0.43 0.64 1.14 0.87 0.42 0.19 0.03 0.02 0.02 0.06 0.18 0.23 0.24 0.21 0.29 0.32 0.35 0.35 0.15 0.06 0.05 0.07 0.05 0.00 0.00 0.00 0.00 0.00 0.00 0.00 0.00 0.00 0.00 0.00 0.00
0.09 0.09 0.05 0.03 0.01 0.01 0.00 0.00 0.03 0.18 0.19 0.31 0.56 0.83 0.53 0.40 0.35 0.36 0.62 0.61 0.59 0.98 0.86 0.44 0.30 0.10 0.02 0.01 0.02 0.09 0.09 0.18 0.42 0.45 0.56 0.47 0.36 0.23 0.26 0.16 0.09 0.04 0.01 0.00 0.00 0.00 0.00 0.00 0.00 0.00 0.00 0.00 0.02 0.02
0.07 0.06 0.05 0.04 0.01 0.00 0.00 0.04 0.17 0.21 0.22 0.47 0.76 0.84 0.50 0.37 0.44 0.53 0.73 0.76 0.42 0.49 0.51 0.29 0.30 0.23 0.03 0.01 0.02 0.02 0.03 0.10 0.32 0.67 0.60 0.40 0.16 0.21 0.22 0.17 0.17 0.02 0.00 0.00 0.00 0.00 0.01 0.01 0.02 0.02 0.01 0.01 0.02 0.02
0.05 0.05 0.06 0.03 0.01 0.02 0.06 0.12 0.19 0.17 0.34 0.62 0.83 0.73 0.33 0.35 0.69 1.10 1.52 1.29 0.65 0.21 0.45 0.32 0.32 0.35 0.18 0.03 0.06 0.12 0.07 0.11 0.37 0.72 0.87 0.37 0.12 0.16 0.30 0.19 0.07 0.01 0.00 0.00 0.01 0.02 0.02 0.04 0.05 0.05 0.04 0.03 0.03 0.02
0.03 0.04 0.03 0.02 0.02 0.04 0.05 0.05 0.11 0.21 0.39 0.59 0.65 0.75 0.47 0.39 1.08 1.40 0.77 0.71 0.54 0.45 0.82 0.54 0.36 0.35 0.34 0.16 0.16 0.27 0.34 0.38 0.55 0.77 0.79 0.54 0.17 0.18 0.26 0.15 0.05 0.00 0.00 0.00 0.01 0.01 0.01 0.00 0.00 0.00 0.00 0.00 0.00 0.00
0.03 0.02 0.01 0.01 0.01 0.02 0.01 0.01 0.03 0.14 0.26 0.43 0.58 0.82 0.94 0.88 1.22 0.85 0.30 0.20 0.28 0.55 0.78 0.60 0.45 0.63 0.54 0.43 0.41 0.33 0.47 0.67 0.71 0.57 0.43 0.43 0.44 0.31 0.23 0.03 0.00 0.00 0.00 0.00 0.00 0.00 0.00 0.01 0.02 0.01 0.02 0.02 0.02 0.02
0.02 0.02 0.01 0.00 0.01 0.01 0.01 0.01 0.00 0.01 0.09 0.18 0.27 0.40 0.43 0.65 0.88 0.70 0.36 0.24 0.25 0.44 0.59 0.44 0.35 0.47 0.58 0.68 0.52 0.48 0.39 0.55 0.58 0.50 0.34 0.25 0.40 0.36 0.10 0.03 0.01 0.00 0.01 0.02 0.01 0.01 0.00 0.00 0.01 0.01 0.01 0.01 0.01 0.00
0.02 0.01 0.01 0.00 0.00 0.01 0.01 0.00 0.00 0.00 0.02 0.06 0.12 0.20 0.40 0.64 0.55 0.37 0.36 0.43 0.55 0.48 0.41 0.32 0.22 0.45 0.58 0.60 0.46 0.54 0.42 0.39 0.33 0.30 0.30 0.27 0.18 0.07 0.03 0.02 0.00 0.00 0.00 0.00 0.00 0.01 0.01 0.02 0.03 0.02 0.01 0.01 0.00 0.00
0.03 0.00 0.02 0.02 0.01 0.01 0.00 0.00 0.00 0.00 0.02 0.04 0.07 0.14 0.23 0.22 0.15 0.16 0.24 0.25 0.27 0.30 0.24 0.29 0.27 0.28 0.36 0.56 0.39 0.26 0.32 0.31 0.20 0.14 0.12 0.13 0.08 0.04 0.02 0.01 0.01 0.00 0.00 0.01 0.02 0.02 0.01 0.01 0.02 0.02 0.00 0.00 0.00 0.00
0.01 0.01 0.00 0.01 0.01 0.00 0.01 0.00 0.00 0.00 0.00 0.00 0.01 0.02 0.04 0.05 0.09 0.12 0.11 0.14 0.15 0.16 0.15 0.15 0.23 0.24 0.28 0.34 0.49 0.50 0.33 0.25 0.22 0.10 0.09 0.07 0.01 0.01 0.01 0.02 0.02 0.04 0.06 0.05 0.03 0.02 0.01 0.00 0.00 0.00 0.00 0.00 0.00 0.00
0.00 0.00 0.00 0.00 0.01 0.00 0.01 0.01 0.00 0.00 0.00 0.00 0.00 0.00 0.01 0.03 0.06 0.07 0.07 0.06 0.10 0.07 0.06 0.09 0.17 0.22 0.20 0.15 0.20 0.33 0.35 0.24 0.17 0.14 0.09 0.02 0.00 0.01 0.03 0.03 0.05 0.07 0.09 0.07 0.03 0.02 0.00 0.00 0.00 0.00 0.00 0.00 0.00 0.00
0.00 0.00 0.00 0.00 0.00 0.00 0.00 0.00 0.00 0.00 0.00 0.00 0.00 0.01 0.02 0.03 0.04 0.06 0.05 0.05 0.05 0.05 0.07 0.07 0.06 0.05 0.05 0.05 0.05 0.08 0.10 0.11 0.11 0.08 0.04 0.02 0.01 0.02 0.05 0.04 0.03 0.05 0.04 0.02 0.00 0.00 0.00 0.00 0.00 0.00 0.00 0.00 0.00 0.00
0.00 0.00 0.00 0.00 0.00 0.00 0.00 0.00 0.00 0.00 0.00 0.00 0.00 0.00 0.05 0.07 0.04 0.04 0.05 0.08 0.10 0.04 0.02 0.01 0.01 0.00 0.00 0.00 0.00 0.01 0.01 0.01 0.00 0.00 0.00 0.01 0.05 0.08 0.09 0.04 0.01 0.01 0.01 0.00 0.00 0.00 0.00 0.00 0.00 0.01 0.00 0.00 0.00 0.00
0.00 0.00 0.00 0.00 0.00 0.00 0.00 0.00 0.00 0.00 0.00 0.00 0.00 0.00 0.00 0.01 0.04 0.03 0.02 0.02 0.01 0.00 0.00 0.00 0.00 0.00 0.00 0.00 0.00 0.00 0.00 0.00 0.00 0.00 0.00 0.00 0.02 0.03 0.02 0.00 0.00 0.00 0.00 0.00 0.00 0.00 0.00 0.00 0.00 0.00 0.00 0.00 0.00 0.00
0.00 0.00 0.00 0.00 0.00 0.00 0.00 0.00 0.00 0.00 0.00 0.00 0.00 0.00 0.00 0.00 0.00 0.00 0.00 0.00 0.00 0.00 0.00 0.00 0.00 0.00 0.00 0.00 0.00 0.00 0.00 0.00 0.00 0.00 0.00 0.00 0.00 0.00 0.00 0.00 0.00 0.00 0.00 0.00 0.00 0.00 0.00 0.00 0.00 0.00 0.00 0.00 0.00 0.00
0.00 0.00 0.00 0.00 0.00 0.00 0.00 0.00 0.00 0.00 0.00 0.00 0.00 0.00 0.00 0.00 0.00 0.00 0.00 0.00 0.00 0.00 0.00 0.00 0.00 0.00 0.00 0.00 0.00 0.00 0.00 0.00 0.00 0.00 0.00 0.00 0.00 0.00 0.00 0.00 0.00 0.00 0.00 0.00 0.00 0.00 0.00 0.00 0.00 0.00 0.00 0.00 0.00 0.00
0.00 0.00 0.00 0.00 0.00 0.00 0.00 0.00 0.00 0.00 0.00 0.00 0.00 0.00 0.00 0.00 0.00 0.00 0.00 0.00 0.00 0.00 0.00 0.00 0.00 0.00 0.00 0.00 0.00 0.00 0.00 0.00 0.00 0.00 0.00 0.00 0.00 0.00 0.00 0.00 0.00 0.00 0.00 0.00 0.00 0.00 0.00 0.00 0.00 0.00 0.00 0.00 0.00 0.00
0.00 0.00 0.00 0.00 0.00 0.00 0.00 0.00 0.00 0.00 0.00 0.00 0.00 0.00 0.00 0.00 0.00 0.00 0.00 0.00 0.00 0.00 0.00 0.00 0.00 0.00 0.00 0.00 0.00 0.00 0.00 0.00 0.00 0.00 0.00 0.00 0.00 0.00 0.00 0.00 0.00 0.00 0.00 0.00 0.00 0.00 0.00 0.00 0.00 0.00 0.00 0.00 0.00 0.00
0.00 0.00 0.00 0.00 0.00 0.00 0.00 0.00 0.00 0.00 0.00 0.00 0.00 0.00 0.00 0.00 0.00 0.00 0.00 0.00 0.00 0.00 0.00 0.00 0.00 0.00 0.00 0.00 0.00 0.00 0.00 0.00 0.00 0.00 0.00 0.00 0.00 0.00 0.00 0.00 0.00 0.00 0.00 0.00 0.00 0.00 0.00 0.00 0.00 0.00 0.00 0.00 0.00 0.00
0.00 0.00 0.00 0.00 0.00 0.00 0.00 0.00 0.00 0.00 0.00 0.00 0.00 0.00 0.00 0.00 0.00 0.00 0.00 0.00 0.00 0.00 0.00 0.00 0.00 0.00 0.00 0.00 0.00 0.00 0.00 0.00 0.00 0.00 0.00 0.00 0.00 0.00 0.00 0.00 0.00 0.00 0.00 0.00 0.00 0.00 0.00 0.00 0.00 0.00 0.00 0.00 0.00 0.00
0.00 0.00 0.00 0.00 0.00 0.00 0.00 0.00 0.00 0.00 0.00 0.00 0.00 0.00 0.00 0.00 0.00 0.00 0.00 0.00 0.00 0.00 0.00 0.00 0.00 0.00 0.00 0.00 0.00 0.00 0.00 0.00 0.00 0.00 0.00 0.00 0.00 0.00 0.00 0.00 0.00 0.00 0.00 0.00 0.00 0.00 0.00 0.00 0.00 0.00 0.00 0.00 0.00 0.00
0.00 0.00 0.00 0.00 0.00 0.00 0.00 0.00 0.00 0.00 0.00 0.00 0.00 0.00 0.00 0.00 0.00 0.00 0.00 0.00 0.00 0.00 0.00 0.00 0.00 0.00 0.00 0.00 0.00 0.00 0.00 0.00 0.00 0.00 0.00 0.00 0.00 0.00 0.00 0.00 0.00 0.00 0.00 0.00 0.00 0.00 0.00 0.00 0.00 0.00 0.00 0.00 0.00 0.00
0.00 0.00 0.00 0.00 0.00 0.00 0.00 0.00 0.00 0.00 0.00 0.00 0.00 0.00 0.00 0.00 0.00 0.00 0.00 0.00 0.00 0.00 0.00 0.00 0.00 0.00 0.00 0.00 0.00 0.00 0.00 0.00 0.00 0.00 0.00 0.00 0.00 0.00 0.00 0.00 0.00 0.00 0.00 0.00 0.00 0.00 0.00 0.00 0.00 0.00 0.00 0.00 0.00 0.00
0.00 0.00 0.00 0.00 0.00 0.00 0.00 0.00 0.00 0.00 0.00 0.00 0.00 0.00 0.00 0.00 0.00 0.00 0.00 0.00 0.00 0.00 0.00 0.00 0.00 0.00 0.00 0.00 0.00 0.00 0.00 0.00 0.00 0.00 0.00 0.00 0.00 0.00 0.00 0.00 0.00 0.00 0.00 0.00 0.00 0.00 0.00 0.00 0.00 0.00 0.00 0.00 0.00 0.00
0.00 0.00 0.00 0.00 0.00 0.00 0.00 0.00 0.00 0.00 0.00 0.00 0.00 0.00 0.00 0.00 0.00 0.00 0.00 0.00 0.00 0.00 0.00 0.00 0.00 0.00 0.00 0.00 0.00 0.00 0.00 0.00 0.00 0.00 0.00 0.00 0.00 0.00 0.00 0.00 0.00 0.00 0.00 0.00 0.00 0.00 0.00 0.00 0.00 0.00 0.00 0.00 0.00 0.00
0.00 0.00 0.00 0.00 0.00 0.00 0.00 0.00 0.00 0.00 0.00 0.00 0.00 0.00 0.00 0.00 0.00 0.00 0.00 0.00 0.00 0.00 0.00 0.00 0.00 0.00 0.00 0.00 0.00 0.00 0.00 0.00 0.00 0.00 0.00 0.00 0.00 0.00 0.00 0.00 0.00 0.00 0.00 0.00 0.00 0.00 0.00 0.00 0.00 0.00 0.00 0.00 0.00 0.00
0.00 0.00 0.00 0.00 0.00 0.00 0.00 0.00 0.00 0.00 0.00 0.00 0.00 0.00 0.00 0.00 0.01 0.00 0.00 0.00 0.00 0.00 0.00 0.00 0.00 0.00 0.00 0.00 0.00 0.00 0.01 0.00 0.00 0.01 0.01 0.01 0.01 0.00 0.00 0.00 0.00 0.00 0.00 0.00 0.00 0.00 0.00 0.00 0.00 0.00 0.00 0.00 0.00 0.00
0.00 0.00 0.00 0.00 0.00 0.00 0.00 0.00 0.00 0.00 0.00 0.00 0.00 0.00 0.00 0.01 0.01 0.00 0.00 0.00 0.00 0.00 0.00 0.00 0.00 0.00 0.00 0.00 0.01 0.02 0.06 0.03 0.00 0.00 0.00 0.00 0.00 0.00 0.00 0.00 0.00 0.00 0.00 0.00 0.00 0.00 0.00 0.00 0.00 0.00 0.00 0.00 0.00 0.00
0.00 0.00 0.00 0.00 0.00 0.00 0.00 0.00 0.00 0.00 0.00 0.00 0.00 0.00 0.00 0.01 0.02 0.01 0.00 0.00 0.00 0.00 0.00 0.00 0.00 0.01 0.02 0.03 0.04 0.04 0.08 0.07 0.01 0.00 0.00 0.00 0.00 0.00 0.00 0.00 0.00 0.00 0.00 0.00 0.00 0.00 0.00 0.00 0.00 0.00 0.00 0.00 0.00 0.00
0.00 0.00 0.00 0.00 0.00 0.00 0.00 0.00 0.00 0.00 0.00 0.01 0.01 0.00 0.01 0.01 0.01 0.02 0.02 0.00 0.00 0.00 0.00 0.00 0.00 0.00 0.00 0.01 0.04 0.07 0.08 0.07 0.02 0.01 0.02 0.01 0.00 0.00 0.00 0.00 0.00 0.00 0.00 0.00 0.00 0.00 0.00 0.00 0.00 0.00 0.00 0.00 0.00 0.00
0.00 0.00 0.00 0.00 0.01 0.01 0.01 0.00 0.00 0.00 0.00 0.00 0.01 0.01 0.01 0.00 0.01 0.03 0.03 0.02 0.03 0.02 0.02 0.01 0.01 0.00 0.00 0.00 0.01 0.03 0.04 0.07 0.10 0.06 0.03 0.03 0.01 0.00 0.00 0.00 0.00 0.00 0.00 0.00 0.00 0.00 0.00 0.00 0.00 0.00 0.00 0.00 0.00 0.00

GFSWCAN_prec_precacc12_255.txt.gz
Total_Precipitation_Accumulation
0.02 0.04 0.06 0.06 0.05 0.05 0.05 0.05 0.06 0.06 0.07 0.08 0.10 0.11 0.11 0.12 0.13 0.29 0.57 0.41 0.38 0.47 0.16 0.00 0.00 0.02 0.04 0.08 0.19 0.14 0.12 0.09 0.26 0.54 0.62 0.31 0.17 0.08 0.09 0.04 0.03 0.12 0.25 0.20 0.06 0.04 0.03 0.00 0.00 0.00 0.00 0.00 0.00 0.00
0.05 0.06 0.06 0.06 0.06 0.05 0.04 0.04 0.05 0.06 0.07 0.08 0.09 0.10 0.12 0.13 0.16 0.28 0.67 0.54 0.46 0.46 0.28 0.02 0.00 0.00 0.04 0.04 0.09 0.14 0.33 0.18 0.31 0.39 0.30 0.20 0.12 0.11 0.12 0.10 0.03 0.04 0.12 0.20 0.13 0.05 0.00 0.00 0.00 0.00 0.00 0.00 0.00 0.00
0.07 0.09 0.09 0.05 0.03 0.02 0.03 0.02 0.02 0.02 0.04 0.05 0.07 0.10 0.14 0.17 0.17 0.27 0.63 0.50 0.62 1.08 0.73 0.15 0.03 0.00 0.00 0.01 0.07 0.22 0.23 0.24 0.23 0.32 0.39 0.44 0.42 0.20 0.12 0.09 0.10 0.06 0.03 0.11 0.16 0.09 0.01 0.00 0.00 0.00 0.00 0.00 0.00 0.00
0.09 0.08 0.05 0.03 0.01 0.01 0.00 0.00 0.02 0.05 0.05 0.08 0.13 0.18 0.22 0.24 0.27 0.34 0.62 0.71 0.64 0.91 0.76 0.20 0.00 0.01 0.01 0.01 0.02 0.09 0.09 0.19 0.44 0.49 0.62 0.48 0.36 0.26 0.31 0.25 0.19 0.11 0.09 0.10 0.16 0.08 0.02 0.01 0.00 0.00 0.00 0.00 0.00 0.00
0.06 0.05 0.04 0.03 0.01 0.00 0.00 0.04 0.09 0.11 0.10 0.15 0.23 0.31 0.33 0.31 0.32 0.50 0.74 0.74 0.38 0.49 0.48 0.08 0.02 0.02 0.01 0.00 0.02 0.02 0.03 0.11 0.32 0.67 0.63 0.35 0.15 0.23 0.24 0.19 0.20 0.04 0.10 0.13 0.07 0.07 0.08 0.05 0.01 0.00 0.00 0.00 0.00 0.00
0.04 0.05 0.06 0.02 0.01 0.02 0.06 0.10 0.12 0.14 0.18 0.31 0.43 0.31 0.19 0.27 0.58 1.09 1.57 1.20 0.57 0.11 0.48 0.29 0.13 0.12 0.05 0.00 0.01 0.04 0.03 0.08 0.33 0.60 0.69 0.27 0.08 0.18 0.32 0.18 0.08 0.04 0.02 0.10 0.10 0.05 0.14 0.16 0.01 0.00 0.00 0.00 0.00 0.00
0.02 0.04 0.03 0.01 0.02 0.04 0.05 0.03 0.09 0.18 0.24 0.37 0.37 0.40 0.27 0.31 1.10 1.50 0.60 0.37 0.29 0.28 0.96 0.61 0.27 0.19 0.12 0.07 0.09 0.17 0.19 0.23 0.37 0.59 0.67 0.46 0.11 0.16 0.24 0.13 0.08 0.18 0.17 0.22 0.23 0.24 0.14 0.11 0.00 0.00 0.00 0.00 0.00 0.00
0.02 0.02 0.01 0.01 0.01 0.02 0.01 0.00 0.02 0.12 0.21 0.32 0.37 0.52 0.71 0.79 1.25 0.98 0.23 0.02 0.07 0.43 0.68 0.56 0.32 0.51 0.44 0.36 0.32 0.28 0.36 0.47 0.57 0.41 0.28 0.31 0.33 0.29 0.26 0.03 0.02 0.12 0.22 0.22 0.19 0.19 0.11 0.02 0.02 0.01 0.02 0.02 0.02 0.02
0.01 0.01 0.00 0.00 0.01 0.01 0.01 0.00 0.00 0.01 0.08 0.17 0.21 0.23 0.27 0.53 0.84 0.66 0.29 0.13 0.14 0.36 0.49 0.36 0.31 0.42 0.53 0.66 0.51 0.53 0.40 0.52 0.50 0.45 0.29 0.22 0.37 0.40 0.12 0.05 0.04 0.04 0.22 0.26 0.15 0.04 0.01 0.01 0.01 0.01 0.01 0.01 0.02 0.02
0.01 0.00 0.00 0.00 0.00 0.01 0.01 0.00 0.00 0.00 0.02 0.06 0.12 0.17 0.28 0.50 0.45 0.35 0.44 0.57 0.69 0.54 0.42 0.29 0.21 0.46 0.57 0.63 0.57 0.73 0.58 0.45 0.40 0.29 0.28 0.28 0.16 0.06 0.03 0.10 0.17 0.16 0.14 0.14 0.09 0.04 0.02 0.02 0.03 0.02 0.02 0.01 0.01 0.02
0.00 0.00 0.00 0.00 0.00 0.00 0.00 0.00 0.00 0.00 0.02 0.06 0.09 0.13 0.22 0.24 0.15 0.17 0.25 0.30 0.31 0.27 0.18 0.23 0.25 0.30 0.37 0.67 0.58 0.40 0.53 0.39 0.26 0.16 0.13 0.16 0.09 0.04 0.02 0.03 0.18 0.30 0.17 0.02 0.02 0.04 0.03 0.02 0.03 0.06 0.06 0.04 0.03 0.03
0.00 0.00 0.00 0.00 0.00 0.00 0.00 0.00 0.00 0.00 0.01 0.02 0.02 0.02 0.04 0.06 0.12 0.17 0.14 0.15 0.16 0.14 0.13 0.14 0.22 0.26 0.32 0.41 0.68 0.69 0.45 0.37 0.29 0.14 0.14 0.08 0.01 0.01 0.01 0.03 0.04 0.13 0.17 0.13 0.05 0.02 0.01 0.01 0.01 0.04 0.04 0.03 0.02 0.01
0.00 0.00 0.00 0.00 0.00 0.00 0.00 0.00 0.00 0.00 0.00 0.00 0.01 0.01 0.03 0.06 0.11 0.11 0.10 0.08 0.12 0.07 0.08 0.16 0.25 0.29 0.27 0.21 0.26 0.39 0.43 0.30 0.23 0.24 0.15 0.03 0.01 0.01 0.03 0.04 0.05 0.08 0.12 0.15 0.10 0.07 0.04 0.03 0.02 0.01 0.01 0.00 0.00 0.00
0.00 0.00 0.00 0.00 0.00 0.00 0.00 0.00 0.00 0.00 0.01 0.03 0.02 0.06 0.04 0.06 0.06 0.07 0.06 0.06 0.06 0.05 0.08 0.12 0.14 0.14 0.13 0.15 0.13 0.16 0.18 0.18 0.17 0.14 0.07 0.02 0.02 0.04 0.06 0.05 0.04 0.08 0.10 0.14 0.17 0.10 0.04 0.02 0.02 0.01 0.01 0.00 0.00 0.00
0.00 0.00 0.00 0.00 0.00 0.00 0.00 0.00 0.00 0.00 0.01 0.01 0.00 0.01 0.04 0.05 0.04 0.05 0.06 0.09 0.11 0.05 0.05 0.05 0.04 0.04 0.03 0.05 0.04 0.05 0.07 0.09 0.05 0.04 0.02 0.05 0.12 0.18 0.22 0.19 0.11 0.08 0.06 0.03 0.03 0.02 0.01 0.01 0.02 0.02 0.00 0.00 0.00 0.00
0.00 0.00 0.00 0.00 0.00 0.00 0.00 0.00 0.00 0.00 0.01 0.00 0.00 0.00 0.00 0.03 0.05 0.04 0.04 0.04 0.03 0.01 0.01 0.02 0.01 0.00 0.00 0.00 0.00 0.00 0.00 0.00 0.00 0.00 0.01 0.04 0.10 0.17 0.16 0.11 0.07 0.04 0.01 0.00 0.00 0.00 0.00 0.00 0.00 0.00 0.00 0.00 0.00 0.00
0.00 0.00 0.00 0.00 0.00 0.00 0.00 0.00 0.00 0.00 0.00 0.00 0.00 0.00 0.01 0.02 0.01 0.02 0.02 0.02 0.00 0.00 0.01 0.00 0.00 0.00 0.00 0.00 0.00 0.00 0.00 0.00 0.00 0.01 0.01 0.02 0.04 0.06 0.04 0.02 0.00 0.00 0.00 0.00 0.00 0.00 0.00 0.00 0.00 0.00 0.00 0.00 0.00 0.00
0.00 0.00 0.00 0.00 0.00 0.00 0.00 0.00 0.00 0.00 0.00 0.00 0.00 0.00 0.00 0.00 0.01 0.01 0.00 0.00 0.01 0.02 0.00 0.00 0.00 0.00 0.00 0.00 0.00 0.00 0.00 0.01 0.01 0.00 0.01 0.01 0.01 0.01 0.00 0.00 0.00 0.00 0.00 0.00 0.00 0.00 0.00 0.00 0.00 0.00 0.00 0.00 0.00 0.00
0.00 0.00 0.00 0.00 0.00 0.00 0.00 0.00 0.00 0.00 0.00 0.00 0.00 0.00 0.00 0.00 0.00 0.00 0.00 0.00 0.00 0.00 0.00 0.00 0.00 0.00 0.00 0.00 0.00 0.00 0.00 0.00 0.00 0.00 0.00 0.00 0.00 0.00 0.00 0.00 0.00 0.00 0.00 0.00 0.00 0.00 0.00 0.00 0.00 0.00 0.00 0.00 0.00 0.00
0.00 0.00 0.00 0.00 0.00 0.00 0.00 0.00 0.00 0.00 0.00 0.00 0.00 0.00 0.00 0.00 0.00 0.00 0.00 0.00 0.00 0.00 0.00 0.00 0.00 0.00 0.00 0.00 0.00 0.00 0.00 0.00 0.00 0.00 0.00 0.00 0.00 0.00 0.00 0.00 0.00 0.00 0.00 0.00 0.00 0.00 0.00 0.00 0.00 0.00 0.00 0.00 0.00 0.00
0.00 0.00 0.00 0.00 0.00 0.00 0.00 0.00 0.00 0.00 0.00 0.00 0.00 0.00 0.00 0.00 0.00 0.00 0.00 0.00 0.00 0.00 0.00 0.00 0.00 0.00 0.00 0.00 0.00 0.00 0.00 0.00 0.00 0.01 0.00 0.00 0.00 0.00 0.00 0.00 0.00 0.00 0.00 0.00 0.00 0.00 0.00 0.00 0.00 0.00 0.00 0.00 0.00 0.00
0.00 0.00 0.00 0.00 0.00 0.00 0.00 0.00 0.00 0.00 0.00 0.00 0.00 0.00 0.00 0.00 0.00 0.00 0.00 0.00 0.00 0.00 0.00 0.00 0.00 0.00 0.00 0.00 0.00 0.00 0.00 0.00 0.00 0.00 0.00 0.00 0.00 0.00 0.00 0.00 0.00 0.00 0.00 0.00 0.00 0.00 0.00 0.00 0.00 0.00 0.00 0.00 0.00 0.00
0.00 0.00 0.00 0.00 0.00 0.00 0.00 0.00 0.00 0.00 0.00 0.00 0.00 0.00 0.00 0.00 0.00 0.00 0.00 0.00 0.00 0.00 0.00 0.00 0.00 0.00 0.00 0.00 0.00 0.00 0.00 0.00 0.00 0.00 0.00 0.00 0.00 0.00 0.00 0.00 0.00 0.00 0.01 0.01 0.00 0.00 0.00 0.00 0.00 0.00 0.00 0.00 0.00 0.00
0.00 0.00 0.00 0.00 0.00 0.00 0.00 0.00 0.00 0.00 0.00 0.00 0.00 0.00 0.00 0.00 0.00 0.00 0.00 0.00 0.00 0.00 0.00 0.00 0.00 0.00 0.00 0.00 0.00 0.00 0.00 0.00 0.00 0.00 0.00 0.00 0.00 0.00 0.00 0.00 0.00 0.00 0.00 0.00 0.00 0.00 0.00 0.00 0.00 0.00 0.00 0.00 0.00 0.00
0.00 0.00 0.00 0.00 0.00 0.00 0.00 0.00 0.00 0.00 0.00 0.00 0.00 0.00 0.00 0.00 0.00 0.00 0.00 0.00 0.00 0.00 0.00 0.00 0.00 0.00 0.00 0.00 0.00 0.00 0.00 0.00 0.00 0.00 0.00 0.00 0.00 0.00 0.00 0.00 0.00 0.00 0.00 0.00 0.00 0.00 0.00 0.00 0.00 0.00 0.00 0.00 0.00 0.00
0.00 0.00 0.00 0.00 0.00 0.00 0.00 0.00 0.00 0.00 0.00 0.00 0.00 0.00 0.00 0.00 0.00 0.00 0.00 0.00 0.00 0.00 0.00 0.00 0.00 0.00 0.00 0.00 0.00 0.00 0.00 0.00 0.00 0.00 0.00 0.00 0.00 0.00 0.00 0.00 0.00 0.00 0.00 0.00 0.00 0.00 0.00 0.00 0.00 0.00 0.00 0.00 0.00 0.00
0.00 0.00 0.00 0.00 0.00 0.00 0.00 0.00 0.00 0.00 0.00 0.00 0.00 0.00 0.00 0.00 0.00 0.00 0.00 0.00 0.00 0.00 0.00 0.00 0.00 0.00 0.00 0.00 0.00 0.00 0.00 0.00 0.00 0.00 0.00 0.00 0.00 0.00 0.00 0.00 0.00 0.00 0.00 0.00 0.00 0.00 0.00 0.00 0.00 0.00 0.00 0.00 0.00 0.00
0.00 0.00 0.00 0.00 0.00 0.00 0.00 0.00 0.00 0.00 0.00 0.00 0.00 0.00 0.00 0.00 0.00 0.00 0.00 0.00 0.00 0.00 0.00 0.00 0.00 0.00 0.00 0.00 0.00 0.00 0.00 0.00 0.00 0.00 0.00 0.00 0.00 0.00 0.00 0.00 0.00 0.00 0.00 0.00 0.00 0.00 0.00 0.00 0.00 0.00 0.00 0.00 0.00 0.00
0.00 0.00 0.00 0.00 0.00 0.00 0.00 0.00 0.00 0.00 0.00 0.00 0.00 0.00 0.00 0.00 0.01 0.01 0.00 0.00 0.00 0.00 0.00 0.00 0.00 0.00 0.00 0.00 0.00 0.00 0.01 0.00 0.00 0.00 0.00 0.00 0.00 0.00 0.00 0.00 0.00 0.00 0.00 0.00 0.00 0.00 0.00 0.00 0.00 0.00 0.00 0.00 0.00 0.00
0.00 0.00 0.01 0.00 0.00 0.00 0.00 0.00 0.00 0.00 0.00 0.00 0.00 0.00 0.00 0.02 0.03 0.01 0.00 0.00 0.00 0.00 0.00 0.00 0.00 0.01 0.01 0.00 0.00 0.01 0.05 0.03 0.00 0.00 0.00 0.00 0.00 0.00 0.00 0.00 0.00 0.00 0.00 0.00 0.00 0.01 0.00 0.00 0.00 0.00 0.00 0.00 0.00 0.00
0.00 0.01 0.01 0.00 0.00 0.00 0.00 0.00 0.00 0.00 0.00 0.00 0.00 0.00 0.01 0.02 0.03 0.01 0.00 0.00 0.00 0.00 0.01 0.00 0.00 0.01 0.03 0.03 0.03 0.04 0.08 0.06 0.00 0.00 0.00 0.00 0.00 0.00 0.00 0.00 0.00 0.00 0.00 0.00 0.00 0.00 0.00 0.00 0.00 0.00 0.00 0.00 0.00 0.00
0.00 0.01 0.01 0.01 0.01 0.01 0.01 0.01 0.01 0.01 0.02 0.02 0.02 0.01 0.02 0.02 0.02 0.03 0.02 0.01 0.01 0.01 0.00 0.01 0.00 0.00 0.01 0.02 0.03 0.05 0.09 0.09 0.02 0.01 0.02 0.01 0.00 0.00 0.00 0.00 0.00 0.00 0.00 0.00 0.00 0.00 0.00 0.00 0.00 0.00 0.00 0.00 0.00 0.00
0.00 0.00 0.01 0.01 0.01 0.01 0.01 0.01 0.00 0.01 0.03 0.03 0.03 0.03 0.02 0.02 0.02 0.04 0.02 0.02 0.03 0.02 0.02 0.02 0.01 0.00 0.00 0.00 0.00 0.01 0.02 0.06 0.10 0.06 0.03 0.04 0.01 0.00 0.00 0.00 0.00 0.00 0.00 0.00 0.00 0.00 0.00 0.00 0.00 0.00 0.00 0.00 0.00 0.00

GFSWCAN_prec_precacc12_261.txt.gz
Total_Precipitation_Accumulation
0.01 0.01 0.01 0.01 0.00 0.01 0.01 0.01 0.02 0.03 0.03 0.03 0.04 0.04 0.05 0.05 0.06 0.14 0.13 0.07 0.15 0.22 0.09 0.01 0.00 0.01 0.03 0.07 0.11 0.06 0.17 0.09 0.13 0.23 0.25 0.13 0.11 0.07 0.10 0.04 0.03 0.12 0.26 0.20 0.08 0.07 0.04 0.00 0.00 0.02 0.03 0.01 0.02 0.02
0.01 0.02 0.02 0.01 0.01 0.01 0.01 0.01 0.02 0.01 0.01 0.02 0.03 0.03 0.05 0.07 0.10 0.20 0.46 0.20 0.08 0.21 0.26 0.02 0.01 0.00 0.00 0.00 0.03 0.06 0.16 0.11 0.29 0.35 0.29 0.31 0.29 0.21 0.19 0.15 0.03 0.05 0.12 0.21 0.16 0.10 0.02 0.00 0.01 0.02 0.01 0.01 0.05 0.26
0.02 0.03 0.03 0.01 0.01 0.01 0.02 0.02 0.01 0.00 0.01 0.01 0.01 0.02 0.03 0.05 0.09 0.20 0.41 0.41 0.47 0.80 0.62 0.16 0.03 0.00 0.00 0.00 0.01 0.13 0.06 0.01 0.03 0.14 0.31 0.48 0.53 0.29 0.20 0.13 0.12 0.08 0.04 0.14 0.20 0.10 0.02 0.00 0.01 0.01 0.05 0.15 0.08 0.04
0.04 0.05 0.05 0.03 0.02 0.02 0.01 0.00 0.02 0.03 0.02 0.02 0.01 0.02 0.02 0.05 0.09 0.20 0.38 0.53 0.80 1.02 0.72 0.14 0.00 0.00 0.00 0.00 0.00 0.01 0.01 0.04 0.11 0.22 0.39 0.45 0.39 0.28 0.34 0.26 0.21 0.12 0.10 0.11 0.17 0.08 0.02 0.01 0.02 0.05 0.03 0.02 0.10 0.22
0.03 0.03 0.04 0.03 0.01 0.01 0.01 0.02 0.04 0.05 0.05 0.04 0.03 0.02 0.03 0.04 0.09 0.26 0.41 0.48 0.45 0.70 0.67 0.13 0.02 0.00 0.00 0.00 0.00 0.00 0.01 0.05 0.12 0.22 0.36 0.27 0.14 0.28 0.28 0.23 0.22 0.04 0.10 0.14 0.08 0.08 0.09 0.07 0.12 0.15 0.24 0.18 0.06 0.07
0.01 0.01 0.02 0.01 0.01 0.02 0.05 0.07 0.04 0.05 0.03 0.02 0.02 0.03 0.05 0.07 0.22 0.62 0.91 0.62 0.46 0.16 0.78 0.44 0.05 0.00 0.00 0.00 0.00 0.00 0.00 0.04 0.15 0.23 0.23 0.14 0.06 0.25 0.50 0.27 0.09 0.04 0.02 0.10 0.10 0.05 0.16 0.30 0.17 0.23 0.22 0.34 0.38 0.32
0.00 0.01 0.00 0.00 0.01 0.01 0.01 0.01 0.00 0.00 0.01 0.01 0.04 0.07 0.05 0.08 0.44 0.82 0.40 0.16 0.20 0.33 1.27 0.64 0.10 0.02 0.01 0.02 0.03 0.06 0.09 0.11 0.18 0.26 0.23 0.13 0.07 0.23 0.40 0.26 0.08 0.18 0.17 0.21 0.22 0.23 0.14 0.40 0.29 0.08 0.13 0.21 0.35 0.35
0.01 0.00 0.00 0.00 0.00 0.01 0.00 0.00 0.00 0.00 0.00 0.00 0.03 0.02 0.09 0.26 0.64 0.73 0.26 0.12 0.17 0.59 0.68 0.42 0.12 0.07 0.10 0.12 0.09 0.10 0.17 0.25 0.35 0.24 0.13 0.10 0.18 0.27 0.29 0.04 0.03 0.12 0.22 0.23 0.25 0.34 0.27 0.19 0.56 0.39 0.19 0.29 0.42 0.24
0.00 0.00 0.00 0.00 0.00 0.00 0.00 0.00 0.00 0.00 0.00 0.00 0.00 0.02 0.08 0.24 0.44 0.26 0.10 0.20 0.20 0.30 0.35 0.17 0.06 0.14 0.21 0.33 0.28 0.28 0.19 0.29 0.21 0.18 0.08 0.16 0.30 0.35 0.10 0.05 0.04 0.04 0.24 0.31 0.34 0.35 0.35 0.24 0.43 0.65 0.36 0.25 0.27 0.25
0.00 0.00 0.00 0.00 0.00 0.00 0.00 0.00 0.00 0.00 0.00 0.00 0.02 0.07 0.06 0.17 0.09 0.07 0.26 0.48 0.54 0.42 0.20 0.08 0.05 0.18 0.26 0.29 0.36 0.44 0.38 0.26 0.27 0.10 0.09 0.20 0.11 0.03 0.02 0.10 0.18 0.16 0.21 0.36 0.43 0.51 0.40 0.34 0.32 0.49 0.31 0.11 0.17 0.31
0.00 0.00 0.00 0.00 0.00 0.00 0.00 0.00 0.00 0.00 0.01 0.06 0.09 0.04 0.04 0.08 0.05 0.11 0.08 0.13 0.11 0.10 0.04 0.01 0.02 0.10 0.16 0.37 0.38 0.31 0.43 0.25 0.22 0.07 0.09 0.11 0.03 0.03 0.06 0.11 0.26 0.38 0.35 0.37 0.64 0.89 0.56 0.35 0.22 0.32 0.29 0.24 0.31 0.40
0.00 0.00 0.00 0.00 0.00 0.00 0.00 0.00 0.00 0.02 0.21 0.17 0.10 0.02 0.04 0.05 0.11 0.14 0.10 0.06 0.08 0.07 0.09 0.08 0.06 0.11 0.20 0.24 0.45 0.52 0.38 0.36 0.21 0.19 0.29 0.12 0.07 0.06 0.10 0.14 0.16 0.27 0.38 0.66 0.94 1.03 0.61 0.40 0.32 0.34 0.41 0.47 0.40 0.35
0.00 0.00 0.00 0.00 0.00 0.00 0.00 0.00 0.00 0.00 0.01 0.05 0.06 0.04 0.05 0.06 0.12 0.10 0.08 0.05 0.07 0.06 0.05 0.15 0.24 0.31 0.30 0.29 0.34 0.31 0.35 0.22 0.17 0.23 0.16 0.12 0.04 0.02 0.07 0.16 0.23 0.27 0.31 0.43 0.51 0.76 0.63 0.53 0.61 0.47 0.41 0.38 0.28 0.18
0.00 0.00 0.00 0.00 0.00 0.00 0.00 0.00 0.00 0.00 0.04 0.18 0.12 0.10 0.04 0.07 0.04 0.05 0.04 0.10 0.10 0.08 0.08 0.12 0.17 0.19 0.19 0.23 0.18 0.21 0.20 0.20 0.22 0.20 0.21 0.07 0.02 0.05 0.11 0.22 0.29 0.38 0.32 0.38 0.53 0.53 0.48 0.38 0.39 0.31 0.18 0.11 0.04 0.04
0.00 0.00 0.00 0.00 0.00 0.00 0.00 0.00 0.00 0.00 0.05 0.10 0.12 0.05 0.03 0.03 0.05 0.03 0.02 0.03 0.05 0.04 0.05 0.07 0.08 0.08 0.11 0.12 0.08 0.11 0.15 0.16 0.15 0.16 0.07 0.08 0.16 0.27 0.37 0.39 0.33 0.31 0.28 0.25 0.29 0.32 0.31 0.23 0.18 0.21 0.12 0.03 0.00 0.00
0.01 0.00 0.00 0.00 0.00 0.00 0.00 0.00 0.00 0.02 0.09 0.07 0.04 0.01 0.01 0.03 0.05 0.04 0.03 0.04 0.03 0.02 0.03 0.04 0.06 0.06 0.05 0.02 0.04 0.03 0.03 0.05 0.05 0.01 0.02 0.08 0.19 0.32 0.36 0.34 0.27 0.21 0.12 0.10 0.08 0.05 0.06 0.05 0.02 0.02 0.01 0.00 0.00 0.00
0.00 0.00 0.00 0.00 0.00 0.00 0.00 0.00 0.03 0.06 0.05 0.03 0.00 0.00 0.02 0.04 0.02 0.03 0.06 0.06 0.03 0.02 0.04 0.05 0.05 0.02 0.01 0.00 0.01 0.01 0.01 0.01 0.01 0.03 0.03 0.06 0.14 0.21 0.18 0.12 0.08 0.04 0.02 0.02 0.01 0.01 0.00 0.00 0.00 0.00 0.00 0.00 0.00 0.00
0.00 0.00 0.00 0.00 0.00 0.00 0.00 0.00 0.04 0.05 0.02 0.00 0.00 0.00 0.01 0.03 0.05 0.07 0.07 0.05 0.05 0.07 0.04 0.03 0.01 0.00 0.00 0.00 0.02 0.01 0.00 0.02 0.02 0.02 0.04 0.07 0.09 0.08 0.03 0.01 0.00 0.00 0.00 0.00 0.00 0.00 0.00 0.00 0.00 0.00 0.00 0.00 0.00 0.00
0.00 0.00 0.00 0.00 0.00 0.00 0.05 0.01 0.01 0.02 0.00 0.00 0.00 0.00 0.01 0.01 0.01 0.00 0.01 0.01 0.00 0.00 0.00 0.00 0.00 0.01 0.02 0.01 0.00 0.00 0.00 0.01 0.02 0.02 0.03 0.03 0.01 0.00 0.00 0.00 0.00 0.00 0.00 0.00 0.00 0.00 0.00 0.00 0.00 0.00 0.00 0.00 0.00 0.00
0.00 0.00 0.00 0.00 0.00 0.00 0.04 0.02 0.00 0.01 0.01 0.00 0.00 0.00 0.00 0.00 0.00 0.00 0.00 0.00 0.00 0.00 0.00 0.00 0.00 0.01 0.00 0.00 0.00 0.00 0.00 0.00 0.00 0.00 0.01 0.00 0.00 0.00 0.00 0.00 0.00 0.00 0.00 0.00 0.00 0.00 0.00 0.00 0.00 0.00 0.00 0.00 0.00 0.00
0.00 0.00 0.00 0.00 0.00 0.00 0.02 0.01 0.00 0.00 0.00 0.00 0.00 0.00 0.01 0.00 0.00 0.00 0.00 0.00 0.00 0.00 0.00 0.00 0.00 0.00 0.00 0.00 0.00 0.00 0.00 0.00 0.00 0.01 0.00 0.00 0.00 0.00 0.00 0.00 0.00 0.00 0.00 0.00 0.00 0.00 0.00 0.00 0.00 0.00 0.00 0.00 0.00 0.00
0.00 0.00 0.00 0.00 0.00 0.00 0.00 0.00 0.00 0.00 0.00 0.00 0.00 0.01 0.01 0.00 0.00 0.00 0.00 0.00 0.00 0.00 0.00 0.00 0.00 0.00 0.00 0.00 0.00 0.00 0.00 0.00 0.00 0.00 0.00 0.00 0.00 0.00 0.00 0.00 0.00 0.00 0.00 0.00 0.00 0.00 0.00 0.00 0.00 0.00 0.01 0.00 0.00 0.00
0.00 0.00 0.00 0.00 0.00 0.00 0.00 0.00 0.00 0.00 0.01 0.01 0.01 0.01 0.01 0.00 0.00 0.00 0.00 0.00 0.00 0.00 0.00 0.00 0.00 0.00 0.00 0.00 0.00 0.00 0.00 0.00 0.00 0.00 0.00 0.00 0.00 0.00 0.00 0.00 0.00 0.00 0.01 0.00 0.00 0.00 0.00 0.00 0.00 0.01 0.00 0.00 0.00 0.00
0.00 0.00 0.00 0.00 0.00 0.00 0.00 0.00 0.00 0.00 0.00 0.00 0.01 0.01 0.00 0.00 0.00 0.00 0.00 0.00 0.00 0.00 0.00 0.00 0.00 0.00 0.00 0.00 0.00 0.00 0.00 0.00 0.00 0.00 0.00 0.00 0.00 0.00 0.00 0.00 0.00 0.00 0.00 0.00 0.00 0.00 0.00 0.00 0.00 0.00 0.00 0.00 0.00 0.00
0.00 0.00 0.00 0.00 0.00 0.00 0.00 0.00 0.00 0.00 0.00 0.00 0.00 0.00 0.00 0.00 0.00 0.00 0.00 0.00 0.00 0.00 0.00 0.00 0.00 0.00 0.00 0.01 0.00 0.00 0.00 0.00 0.00 0.00 0.00 0.00 0.00 0.00 0.00 0.00 0.00 0.00 0.00 0.00 0.01 0.00 0.00 0.00 0.00 0.00 0.00 0.00 0.00 0.00
0.01 0.00 0.00 0.00 0.00 0.00 0.00 0.00 0.00 0.00 0.00 0.00 0.01 0.00 0.00 0.00 0.00 0.00 0.00 0.00 0.00 0.00 0.00 0.00 0.00 0.00 0.00 0.00 0.01 0.00 0.00 0.00 0.00 0.00 0.00 0.00 0.00 0.00 0.00 0.00 0.01 0.01 0.00 0.00 0.00 0.00 0.00 0.00 0.00 0.00 0.00 0.00 0.00 0.00
0.00 0.00 0.00 0.00 0.00 0.00 0.00 0.00 0.00 0.00 0.00 0.00 0.00 0.00 0.00 0.00 0.00 0.00 0.00 0.00 0.00 0.00 0.00 0.00 0.00 0.00 0.00 0.00 0.00 0.00 0.00 0.00 0.00 0.00 0.00 0.00 0.00 0.00 0.00 0.00 0.00 0.00 0.00 0.00 0.00 0.00 0.00 0.00 0.00 0.00 0.00 0.00 0.00 0.00
0.00 0.00 0.00 0.00 0.00 0.00 0.00 0.00 0.00 0.00 0.00 0.00 0.00 0.00 0.00 0.00 0.00 0.00 0.00 0.00 0.00 0.00 0.00 0.00 0.00 0.00 0.00 0.00 0.00 0.00 0.00 0.00 0.00 0.00 0.00 0.00 0.00 0.00 0.00 0.00 0.00 0.00 0.00 0.00 0.00 0.00 0.00 0.00 0.00 0.00 0.00 0.00 0.00 0.00
0.00 0.00 0.00 0.00 0.00 0.00 0.00 0.00 0.00 0.00 0.00 0.00 0.00 0.00 0.00 0.01 0.02 0.01 0.01 0.00 0.00 0.00 0.00 0.00 0.00 0.00 0.00 0.00 0.00 0.00 0.00 0.00 0.00 0.00 0.00 0.00 0.00 0.00 0.00 0.00 0.00 0.00 0.00 0.00 0.00 0.00 0.00 0.00 0.00 0.00 0.00 0.00 0.00 0.00
0.00 0.00 0.01 0.00 0.00 0.01 0.00 0.00 0.00 0.00 0.00 0.00 0.00 0.00 0.00 0.02 0.04 0.02 0.00 0.00 0.00 0.00 0.00 0.01 0.01 0.01 0.01 0.01 0.01 0.01 0.02 0.02 0.00 0.00 0.00 0.00 0.00 0.00 0.00 0.00 0.00 0.00 0.00 0.00 0.00 0.01 0.01 0.01 0.01 0.00 0.00 0.00 0.00 0.00
0.00 0.01 0.01 0.01 0.00 0.01 0.01 0.00 0.00 0.00 0.00 0.00 0.00 0.00 0.01 0.03 0.04 0.02 0.01 0.01 0.01 0.01 0.01 0.01 0.01 0.01 0.03 0.03 0.02 0.03 0.07 0.06 0.01 0.01 0.01 0.00 0.00 0.00 0.00 0.00 0.00 0.00 0.00 0.00 0.00 0.00 0.01 0.01 0.01 0.00 0.00 0.00 0.00 0.00
0.00 0.01 0.01 0.01 0.02 0.01 0.01 0.01 0.01 0.02 0.03 0.03 0.03 0.01 0.02 0.03 0.03 0.03 0.02 0.02 0.03 0.01 0.01 0.01 0.01 0.01 0.02 0.03 0.04 0.04 0.06 0.06 0.01 0.00 0.00 0.00 0.00 0.00 0.00 0.00 0.00 0.00 0.00 0.00 0.00 0.00 0.00 0.00 0.01 0.00 0.00 0.00 0.00 0.00
0.01 0.01 0.03 0.04 0.02 0.02 0.01 0.03 0.02 0.04 0.06 0.07 0.05 0.04 0.05 0.04 0.03 0.04 0.03 0.03 0.03 0.01 0.01 0.01 0.01 0.01 0.00 0.00 0.00 0.01 0.01 0.03 0.03 0.02 0.01 0.00 0.01 0.01 0.01 0.00 0.00 0.00 0.00 0.00 0.00 0.00 0.00 0.00 0.00 0.00 0.00 0.00 0.00 0.00

GFSWCAN_prec_precacc12_264.txt.gz
Total_Precipitation_Accumulation
0.01 0.01 0.01 0.01 0.01 0.01 0.00 0.00 0.01 0.01 0.01 0.01 0.02 0.03 0.03 0.03 0.05 0.10 0.09 0.05 0.11 0.09 0.04 0.00 0.00 0.01 0.03 0.07 0.09 0.05 0.18 0.08 0.11 0.21 0.19 0.10 0.09 0.02 0.02 0.00 0.01 0.10 0.22 0.18 0.07 0.08 0.05 0.00 0.00 0.03 0.03 0.01 0.02 0.02
0.01 0.01 0.01 0.01 0.01 0.01 0.01 0.01 0.01 0.01 0.01 0.01 0.01 0.02 0.03 0.04 0.07 0.16 0.28 0.12 0.06 0.21 0.25 0.02 0.01 0.00 0.00 0.00 0.03 0.05 0.16 0.10 0.27 0.36 0.33 0.36 0.30 0.18 0.13 0.09 0.01 0.03 0.12 0.21 0.17 0.11 0.02 0.00 0.01 0.02 0.01 0.01 0.05 0.26
0.01 0.02 0.02 0.01 0.01 0.01 0.01 0.01 0.01 0.00 0.00 0.00 0.01 0.01 0.02 0.04 0.07 0.17 0.24 0.19 0.33 0.66 0.52 0.14 0.03 0.00 0.00 0.00 0.01 0.16 0.08 0.01 0.03 0.09 0.21 0.34 0.35 0.16 0.14 0.08 0.05 0.02 0.04 0.14 0.21 0.10 0.02 0.00 0.01 0.01 0.05 0.15 0.08 0.04
0.03 0.03 0.03 0.03 0.02 0.02 0.01 0.00 0.01 0.01 0.01 0.01 0.00 0.01 0.01 0.03 0.06 0.17 0.28 0.29 0.57 0.85 0.60 0.11 0.00 0.00 0.00 0.00 0.00 0.01 0.01 0.02 0.05 0.11 0.23 0.29 0.16 0.07 0.09 0.11 0.12 0.08 0.10 0.11 0.17 0.08 0.02 0.01 0.02 0.05 0.03 0.02 0.10 0.22
0.03 0.03 0.03 0.02 0.02 0.01 0.01 0.01 0.03 0.03 0.03 0.04 0.04 0.02 0.02 0.03 0.05 0.17 0.28 0.29 0.33 0.67 0.66 0.11 0.01 0.00 0.00 0.00 0.00 0.00 0.01 0.03 0.07 0.16 0.28 0.18 0.07 0.09 0.07 0.07 0.06 0.01 0.10 0.14 0.08 0.08 0.09 0.07 0.12 0.15 0.24 0.18 0.06 0.07
0.01 0.02 0.01 0.01 0.00 0.00 0.01 0.01 0.01 0.01 0.01 0.01 0.01 0.02 0.02 0.02 0.11 0.39 0.62 0.34 0.27 0.16 0.86 0.45 0.05 0.00 0.00 0.00 0.00 0.00 0.00 0.03 0.11 0.15 0.14 0.09 0.03 0.16 0.32 0.13 0.02 0.03 0.02 0.10 0.10 0.05 0.16 0.30 0.17 0.23 0.22 0.34 0.38 0.32
0.00 0.00 0.00 0.00 0.00 0.00 0.00 0.00 0.00 0.01 0.01 0.00 0.01 0.02 0.03 0.06 0.21 0.45 0.27 0.08 0.12 0.31 1.19 0.65 0.10 0.02 0.01 0.02 0.02 0.04 0.06 0.08 0.13 0.18 0.18 0.09 0.04 0.17 0.41 0.24 0.03 0.18 0.17 0.21 0.22 0.23 0.14 0.40 0.29 0.08 0.13 0.21 0.35 0.35
0.00 0.00 0.00 0.00 0.00 0.00 0.00 0.00 0.00 0.00 0.00 0.00 0.00 0.00 0.03 0.12 0.27 0.41 0.20 0.12 0.18 0.58 0.63 0.41 0.09 0.04 0.02 0.05 0.06 0.07 0.12 0.19 0.31 0.21 0.10 0.07 0.06 0.16 0.27 0.04 0.02 0.11 0.23 0.24 0.25 0.34 0.27 0.19 0.56 0.39 0.19 0.29 0.40 0.22
0.00 0.00 0.00 0.00 0.00 0.00 0.00 0.00 0.00 0.00 0.00 0.00 0.00 0.02 0.08 0.13 0.21 0.13 0.07 0.19 0.22 0.32 0.39 0.17 0.02 0.06 0.07 0.08 0.12 0.15 0.12 0.21 0.17 0.12 0.04 0.09 0.15 0.21 0.04 0.04 0.07 0.07 0.29 0.38 0.37 0.36 0.36 0.24 0.43 0.64 0.35 0.24 0.26 0.26
0.00 0.00 0.00 0.00 0.00 0.00 0.00 0.00 0.00 0.00 0.00 0.00 0.03 0.11 0.08 0.08 0.04 0.05 0.19 0.38 0.45 0.41 0.22 0.07 0.02 0.08 0.05 0.09 0.20 0.30 0.30 0.19 0.20 0.06 0.04 0.13 0.06 0.01 0.05 0.18 0.29 0.31 0.41 0.55 0.61 0.62 0.44 0.34 0.30 0.47 0.31 0.11 0.17 0.36
0.00 0.00 0.00 0.00 0.00 0.00 0.00 0.00 0.00 0.00 0.02 0.07 0.13 0.06 0.04 0.04 0.03 0.11 0.06 0.09 0.09 0.07 0.03 0.01 0.01 0.06 0.04 0.16 0.27 0.27 0.35 0.18 0.18 0.04 0.07 0.08 0.05 0.15 0.14 0.19 0.33 0.51 0.59 0.64 0.88 1.11 0.74 0.44 0.23 0.33 0.32 0.25 0.33 0.52
0.00 0.00 0.00 0.00 0.00 0.00 0.00 0.00 0.00 0.02 0.27 0.32 0.20 0.08 0.06 0.05 0.07 0.11 0.10 0.03 0.04 0.01 0.03 0.04 0.04 0.08 0.14 0.15 0.36 0.38 0.29 0.31 0.18 0.18 0.36 0.20 0.20 0.11 0.16 0.22 0.24 0.36 0.54 0.78 1.10 1.26 0.90 0.47 0.40 0.47 0.50 0.56 0.52 0.56
0.01 0.00 0.00 0.00 0.00 0.00 0.00 0.00 0.00 0.00 0.01 0.17 0.23 0.12 0.05 0.05 0.11 0.09 0.06 0.03 0.05 0.04 0.04 0.11 0.16 0.18 0.19 0.21 0.28 0.19 0.23 0.13 0.13 0.23 0.21 0.23 0.07 0.06 0.14 0.25 0.33 0.35 0.36 0.46 0.58 0.89 0.81 0.74 0.83 0.69 0.68 0.63 0.56 0.55
0.01 0.00 0.00 0.00 0.00 0.00 0.00 0.00 0.00 0.00 0.04 0.33 0.26 0.17 0.04 0.07 0.03 0.03 0.03 0.09 0.09 0.07 0.08 0.08 0.13 0.15 0.15 0.21 0.14 0.15 0.13 0.12 0.14 0.16 0.25 0.07 0.03 0.07 0.13 0.26 0.34 0.42 0.37 0.42 0.62 0.64 0.60 0.55 0.73 0.66 0.47 0.38 0.25 0.24
0.01 0.00 0.00 0.00 0.00 0.00 0.00 0.00 0.00 0.00 0.06 0.11 0.22 0.09 0.03 0.02 0.03 0.01 0.00 0.01 0.01 0.01 0.03 0.06 0.07 0.08 0.11 0.13 0.08 0.11 0.15 0.17 0.18 0.19 0.07 0.08 0.12 0.20 0.30 0.37 0.36 0.33 0.30 0.32 0.36 0.39 0.39 0.29 0.25 0.34 0.27 0.14 0.05 0.03
0.02 0.01 0.00 0.00 0.00 0.00 0.00 0.00 0.00 0.02 0.09 0.08 0.05 0.02 0.01 0.03 0.02 0.01 0.02 0.03 0.02 0.02 0.03 0.05 0.06 0.09 0.07 0.02 0.04 0.04 0.03 0.05 0.05 0.02 0.03 0.09 0.18 0.31 0.38 0.36 0.31 0.26 0.15 0.15 0.12 0.08 0.10 0.06 0.02 0.04 0.03 0.00 0.00 0.00
0.01 0.00 0.00 0.00 0.00 0.00 0.00 0.00 0.05 0.11 0.07 0.04 0.00 0.00 0.02 0.04 0.02 0.03 0.06 0.07 0.03 0.02 0.04 0.06 0.08 0.04 0.02 0.01 0.01 0.03 0.01 0.01 0.01 0.02 0.03 0.06 0.14 0.22 0.20 0.14 0.09 0.05 0.03 0.02 0.01 0.01 0.00 0.00 0.00 0.00 0.00 0.00 0.00 0.00
0.01 0.03 0.01 0.00 0.00 0.00 0.00 0.00 0.07 0.09 0.03 0.00 0.00 0.00 0.01 0.03 0.05 0.07 0.08 0.06 0.07 0.08 0.05 0.04 0.01 0.01 0.01 0.01 0.02 0.01 0.00 0.02 0.02 0.02 0.04 0.07 0.09 0.08 0.03 0.01 0.00 0.00 0.00 0.00 0.00 0.00 0.00 0.00 0.00 0.00 0.00 0.00 0.00 0.00
0.00 0.00 0.00 0.00 0.00 0.00 0.06 0.01 0.02 0.05 0.01 0.00 0.00 0.00 0.01 0.01 0.01 0.00 0.01 0.02 0.01 0.01 0.01 0.00 0.00 0.01 0.02 0.01 0.00 0.00 0.00 0.01 0.02 0.02 0.03 0.04 0.01 0.00 0.00 0.00 0.00 0.00 0.00 0.00 0.00 0.00 0.00 0.00 0.00 0.00 0.00 0.00 0.00 0.00
0.00 0.00 0.00 0.00 0.00 0.01 0.07 0.07 0.01 0.01 0.01 0.00 0.00 0.00 0.00 0.00 0.00 0.00 0.00 0.00 0.00 0.00 0.00 0.00 0.00 0.01 0.00 0.00 0.00 0.00 0.00 0.00 0.00 0.00 0.01 0.00 0.00 0.00 0.00 0.00 0.00 0.00 0.00 0.00 0.00 0.00 0.00 0.00 0.00 0.00 0.00 0.00 0.00 0.00
0.00 0.00 0.00 0.00 0.00 0.01 0.04 0.03 0.04 0.00 0.00 0.00 0.00 0.00 0.01 0.00 0.00 0.00 0.00 0.00 0.00 0.00 0.00 0.00 0.00 0.00 0.00 0.00 0.00 0.00 0.00 0.00 0.00 0.01 0.00 0.00 0.00 0.00 0.00 0.00 0.00 0.00 0.00 0.00 0.00 0.00 0.00 0.00 0.00 0.00 0.00 0.00 0.00 0.00
0.00 0.00 0.00 0.00 0.00 0.01 0.01 0.00 0.01 0.00 0.00 0.00 0.00 0.01 0.01 0.00 0.00 0.00 0.00 0.00 0.00 0.00 0.00 0.00 0.00 0.00 0.00 0.00 0.00 0.00 0.00 0.00 0.00 0.00 0.00 0.00 0.00 0.00 0.00 0.00 0.00 0.00 0.00 0.00 0.00 0.00 0.00 0.00 0.00 0.00 0.00 0.00 0.00 0.00
0.00 0.00 0.00 0.00 0.00 0.02 0.03 0.00 0.00 0.00 0.01 0.01 0.01 0.02 0.01 0.00 0.00 0.00 0.00 0.00 0.00 0.00 0.00 0.00 0.00 0.00 0.00 0.00 0.00 0.00 0.00 0.00 0.00 0.00 0.00 0.00 0.00 0.00 0.00 0.00 0.00 0.00 0.01 0.00 0.00 0.00 0.00 0.00 0.00 0.00 0.00 0.00 0.00 0.00
0.00 0.00 0.01 0.01 0.00 0.00 0.00 0.00 0.00 0.00 0.01 0.01 0.01 0.01 0.00 0.00 0.00 0.00 0.00 0.00 0.00 0.00 0.00 0.00 0.00 0.00 0.00 0.00 0.00 0.00 0.00 0.00 0.00 0.00 0.00 0.00 0.00 0.00 0.00 0.00 0.00 0.00 0.00 0.00 0.00 0.00 0.00 0.00 0.00 0.00 0.00 0.00 0.00 0.00
0.02 0.00 0.00 0.00 0.00 0.00 0.00 0.00 0.00 0.00 0.00 0.00 0.01 0.00 0.00 0.00 0.00 0.00 0.00 0.00 0.00 0.00 0.00 0.00 0.00 0.00 0.00 0.01 0.00 0.00 0.00 0.00 0.00 0.00 0.00 0.00 0.00 0.00 0.00 0.00 0.00 0.00 0.00 0.00 0.01 0.00 0.01 0.00 0.00 0.00 0.00 0.00 0.00 0.00
0.02 0.00 0.00 0.00 0.00 0.00 0.00 0.00 0.00 0.00 0.00 0.00 0.01 0.00 0.00 0.00 0.00 0.00 0.00 0.00 0.00 0.00 0.00 0.00 0.00 0.00 0.00 0.00 0.01 0.00 0.00 0.00 0.00 0.00 0.00 0.00 0.00 0.00 0.00 0.00 0.00 0.01 0.00 0.00 0.00 0.00 0.00 0.00 0.00 0.00 0.00 0.00 0.00 0.00
0.01 0.00 0.00 0.00 0.00 0.00 0.00 0.00 0.00 0.00 0.00 0.00 0.01 0.00 0.00 0.00 0.00 0.00 0.00 0.00 0.00 0.00 0.00 0.00 0.00 0.00 0.00 0.00 0.00 0.00 0.00 0.00 0.00 0.00 0.00 0.00 0.00 0.00 0.00 0.00 0.00 0.00 0.00 0.00 0.00 0.00 0.00 0.00 0.00 0.00 0.00 0.00 0.00 0.00
0.00 0.00 0.00 0.00 0.00 0.00 0.00 0.00 0.00 0.00 0.00 0.00 0.00 0.00 0.00 0.00 0.00 0.00 0.00 0.00 0.00 0.00 0.00 0.00 0.00 0.00 0.00 0.00 0.00 0.00 0.00 0.00 0.00 0.00 0.00 0.00 0.00 0.00 0.00 0.00 0.00 0.00 0.00 0.00 0.00 0.00 0.00 0.00 0.00 0.00 0.00 0.00 0.00 0.00
0.00 0.00 0.00 0.00 0.00 0.00 0.00 0.00 0.00 0.00 0.00 0.00 0.00 0.00 0.00 0.01 0.01 0.01 0.00 0.00 0.00 0.00 0.00 0.00 0.00 0.00 0.00 0.00 0.00 0.00 0.00 0.00 0.00 0.00 0.00 0.00 0.00 0.00 0.00 0.00 0.00 0.00 0.00 0.00 0.00 0.00 0.00 0.00 0.00 0.00 0.00 0.00 0.00 0.00
0.00 0.00 0.00 0.00 0.00 0.01 0.00 0.00 0.00 0.00 0.00 0.00 0.00 0.00 0.00 0.02 0.03 0.01 0.00 0.00 0.00 0.00 0.00 0.00 0.00 0.00 0.00 0.00 0.00 0.00 0.01 0.01 0.00 0.00 0.00 0.00 0.00 0.00 0.00 0.00 0.00 0.00 0.00 0.00 0.00 0.01 0.01 0.01 0.01 0.01 0.00 0.00 0.00 0.00
0.00 0.01 0.01 0.01 0.00 0.01 0.01 0.00 0.00 0.00 0.00 0.00 0.00 0.00 0.01 0.02 0.04 0.02 0.01 0.01 0.01 0.01 0.01 0.01 0.01 0.01 0.01 0.01 0.01 0.02 0.02 0.01 0.01 0.01 0.01 0.00 0.00 0.00 0.00 0.00 0.00 0.00 0.00 0.00 0.00 0.00 0.01 0.01 0.01 0.01 0.01 0.00 0.00 0.00
0.00 0.01 0.01 0.01 0.02 0.01 0.01 0.01 0.01 0.02 0.02 0.02 0.02 0.01 0.01 0.02 0.02 0.03 0.02 0.02 0.03 0.01 0.01 0.01 0.01 0.01 0.02 0.03 0.03 0.02 0.04 0.03 0.01 0.01 0.00 0.00 0.00 0.00 0.00 0.00 0.00 0.00 0.00 0.00 0.00 0.00 0.00 0.00 0.01 0.01 0.00 0.00 0.00 0.00
0.02 0.01 0.03 0.05 0.03 0.02 0.01 0.02 0.02 0.04 0.06 0.07 0.04 0.04 0.05 0.04 0.02 0.03 0.03 0.03 0.02 0.01 0.01 0.01 0.01 0.01 0.01 0.00 0.01 0.01 0.01 0.02 0.02 0.02 0.01 0.01 0.01 0.01 0.01 0.00 0.01 0.01 0.00 0.00 0.01 0.00 0.00 0.01 0.00 0.00 0.00 0.00 0.00 0.00

GFSWCAN_prec_precacc12_267.txt.gz
Total_Precipitation_Accumulation
0.00 0.01 0.00 0.00 0.00 0.00 0.00 0.00 0.00 0.00 0.00 0.00 0.00 0.00 0.01 0.01 0.02 0.07 0.04 0.02 0.06 0.07 0.03 0.00 0.00 0.00 0.01 0.04 0.05 0.03 0.13 0.06 0.08 0.16 0.14 0.08 0.07 0.02 0.03 0.01 0.01 0.00 0.02 0.02 0.03 0.06 0.04 0.00 0.00 0.03 0.03 0.01 0.02 0.02
0.01 0.00 0.00 0.00 0.01 0.01 0.01 0.00 0.01 0.00 0.00 0.01 0.01 0.01 0.02 0.03 0.04 0.11 0.15 0.07 0.03 0.18 0.23 0.02 0.01 0.00 0.00 0.00 0.01 0.02 0.11 0.07 0.23 0.32 0.30 0.35 0.30 0.17 0.11 0.08 0.00 0.02 0.02 0.03 0.06 0.06 0.01 0.00 0.01 0.02 0.01 0.01 0.05 0.26
0.00 0.01 0.01 0.01 0.01 0.02 0.01 0.01 0.01 0.00 0.00 0.00 0.00 0.01 0.02 0.04 0.05 0.12 0.08 0.09 0.28 0.56 0.43 0.13 0.03 0.00 0.00 0.00 0.00 0.12 0.07 0.00 0.01 0.06 0.20 0.29 0.30 0.11 0.09 0.04 0.02 0.01 0.01 0.04 0.05 0.01 0.01 0.00 0.01 0.01 0.05 0.15 0.08 0.04
0.02 0.02 0.03 0.03 0.02 0.01 0.01 0.00 0.01 0.01 0.00 0.00 0.00 0.01 0.01 0.04 0.06 0.16 0.20 0.13 0.39 0.69 0.48 0.07 0.00 0.00 0.00 0.00 0.00 0.00 0.01 0.01 0.03 0.11 0.27 0.28 0.16 0.04 0.03 0.01 0.02 0.01 0.01 0.01 0.02 0.00 0.00 0.00 0.01 0.05 0.03 0.02 0.10 0.22
0.03 0.03 0.02 0.02 0.02 0.02 0.02 0.02 0.02 0.02 0.03 0.04 0.04 0.03 0.02 0.03 0.06 0.10 0.16 0.17 0.19 0.52 0.53 0.09 0.01 0.00 0.00 0.00 0.00 0.00 0.00 0.02 0.05 0.18 0.25 0.15 0.05 0.08 0.05 0.04 0.02 0.00 0.00 0.00 0.00 0.00 0.01 0.02 0.11 0.14 0.24 0.18 0.06 0.07
0.02 0.02 0.02 0.02 0.03 0.03 0.02 0.01 0.01 0.01 0.01 0.01 0.01 0.03 0.03 0.02 0.06 0.21 0.32 0.11 0.11 0.12 0.84 0.42 0.03 0.00 0.00 0.00 0.00 0.00 0.00 0.01 0.09 0.18 0.13 0.06 0.01 0.12 0.31 0.12 0.01 0.00 0.00 0.00 0.00 0.00 0.03 0.15 0.16 0.23 0.22 0.34 0.38 0.32
0.00 0.00 0.00 0.00 0.00 0.00 0.00 0.00 0.00 0.00 0.01 0.01 0.01 0.01 0.02 0.05 0.07 0.19 0.15 0.03 0.05 0.26 0.97 0.51 0.06 0.00 0.00 0.00 0.01 0.02 0.02 0.04 0.08 0.16 0.15 0.05 0.02 0.16 0.44 0.24 0.00 0.00 0.00 0.00 0.01 0.02 0.07 0.32 0.29 0.08 0.13 0.21 0.35 0.35
0.00 0.00 0.00 0.00 0.00 0.00 0.00 0.00 0.00 0.00 0.00 0.00 0.00 0.00 0.00 0.04 0.09 0.11 0.09 0.12 0.17 0.49 0.52 0.33 0.06 0.02 0.01 0.02 0.03 0.05 0.08 0.12 0.19 0.14 0.05 0.04 0.04 0.14 0.29 0.04 0.01 0.02 0.03 0.05 0.08 0.16 0.23 0.23 0.59 0.40 0.19 0.29 0.40 0.22
0.00 0.00 0.00 0.00 0.00 0.00 0.00 0.00 0.00 0.00 0.00 0.00 0.00 0.01 0.06 0.08 0.07 0.04 0.04 0.19 0.22 0.31 0.33 0.14 0.01 0.03 0.06 0.06 0.08 0.07 0.09 0.17 0.12 0.08 0.01 0.08 0.15 0.25 0.05 0.08 0.14 0.12 0.19 0.27 0.38 0.46 0.49 0.39 0.53 0.67 0.35 0.24 0.26 0.24
0.00 0.00 0.00 0.00 0.00 0.00 0.00 0.00 0.00 0.00 0.00 0.00 0.02 0.11 0.09 0.06 0.03 0.02 0.10 0.24 0.33 0.40 0.25 0.07 0.01 0.04 0.04 0.04 0.07 0.10 0.16 0.14 0.13 0.04 0.03 0.13 0.06 0.03 0.10 0.24 0.29 0.33 0.43 0.63 0.83 0.79 0.56 0.50 0.37 0.48 0.30 0.10 0.16 0.33
0.00 0.00 0.00 0.00 0.00 0.00 0.00 0.00 0.00 0.00 0.02 0.06 0.12 0.07 0.06 0.04 0.04 0.10 0.06 0.05 0.06 0.07 0.03 0.00 0.00 0.03 0.02 0.04 0.07 0.14 0.16 0.12 0.14 0.01 0.06 0.06 0.08 0.19 0.19 0.31 0.31 0.38 0.65 0.88 1.10 1.25 0.83 0.54 0.29 0.32 0.27 0.21 0.31 0.51
0.00 0.00 0.00 0.00 0.00 0.00 0.00 0.00 0.00 0.02 0.28 0.38 0.27 0.16 0.12 0.07 0.05 0.08 0.11 0.03 0.03 0.01 0.02 0.02 0.03 0.05 0.10 0.08 0.19 0.22 0.19 0.19 0.12 0.15 0.37 0.24 0.24 0.13 0.25 0.36 0.32 0.42 0.60 0.86 1.21 1.39 0.95 0.50 0.45 0.46 0.47 0.58 0.58 0.60
0.01 0.01 0.00 0.00 0.00 0.00 0.00 0.00 0.00 0.01 0.01 0.25 0.34 0.21 0.06 0.05 0.09 0.06 0.04 0.02 0.02 0.03 0.02 0.03 0.07 0.11 0.14 0.17 0.25 0.15 0.16 0.06 0.07 0.13 0.18 0.25 0.06 0.07 0.18 0.30 0.39 0.42 0.41 0.45 0.62 0.95 0.83 0.80 0.89 0.71 0.76 0.73 0.66 0.68
0.01 0.01 0.01 0.00 0.00 0.00 0.00 0.00 0.01 0.02 0.03 0.42 0.38 0.20 0.03 0.04 0.01 0.02 0.03 0.08 0.08 0.07 0.07 0.03 0.04 0.07 0.09 0.12 0.07 0.07 0.04 0.05 0.08 0.12 0.23 0.06 0.02 0.07 0.14 0.28 0.35 0.41 0.34 0.33 0.51 0.60 0.61 0.58 0.81 0.73 0.55 0.46 0.34 0.40
0.01 0.01 0.01 0.00 0.00 0.00 0.00 0.00 0.02 0.03 0.05 0.14 0.31 0.13 0.02 0.01 0.02 0.00 0.00 0.00 0.00 0.00 0.01 0.02 0.04 0.05 0.09 0.09 0.05 0.07 0.09 0.09 0.14 0.16 0.05 0.04 0.06 0.10 0.17 0.25 0.29 0.30 0.29 0.35 0.39 0.40 0.42 0.32 0.29 0.45 0.42 0.27 0.17 0.17
0.02 0.01 0.00 0.00 0.00 0.00 0.00 0.00 0.04 0.08 0.09 0.08 0.06 0.04 0.01 0.01 0.00 0.00 0.00 0.01 0.00 0.01 0.02 0.03 0.06 0.10 0.07 0.02 0.04 0.03 0.02 0.05 0.05 0.01 0.02 0.05 0.10 0.17 0.24 0.28 0.27 0.26 0.17 0.17 0.15 0.11 0.14 0.09 0.03 0.09 0.09 0.04 0.01 0.00
0.01 0.01 0.02 0.00 0.00 0.00 0.00 0.01 0.12 0.20 0.10 0.05 0.00 0.00 0.01 0.02 0.01 0.02 0.04 0.04 0.02 0.02 0.03 0.06 0.10 0.06 0.02 0.01 0.01 0.03 0.01 0.00 0.01 0.02 0.02 0.05 0.10 0.17 0.16 0.12 0.09 0.06 0.03 0.02 0.01 0.01 0.00 0.00 0.00 0.00 0.00 0.00 0.00 0.00
0.02 0.05 0.05 0.00 0.00 0.00 0.01 0.04 0.14 0.17 0.07 0.00 0.00 0.00 0.01 0.03 0.04 0.06 0.07 0.06 0.06 0.06 0.05 0.05 0.02 0.01 0.01 0.01 0.02 0.01 0.00 0.01 0.01 0.02 0.04 0.07 0.08 0.07 0.02 0.01 0.01 0.00 0.00 0.00 0.00 0.00 0.00 0.00 0.00 0.00 0.00 0.00 0.00 0.00
0.00 0.00 0.01 0.00 0.00 0.01 0.07 0.02 0.04 0.10 0.01 0.00 0.00 0.00 0.01 0.01 0.01 0.00 0.01 0.03 0.02 0.02 0.04 0.01 0.00 0.01 0.02 0.01 0.00 0.00 0.00 0.00 0.01 0.02 0.03 0.04 0.01 0.00 0.00 0.00 0.00 0.00 0.00 0.00 0.00 0.00 0.00 0.00 0.00 0.00 0.00 0.00 0.00 0.00
0.00 0.00 0.00 0.00 0.00 0.03 0.14 0.12 0.01 0.01 0.01 0.00 0.00 0.00 0.00 0.00 0.00 0.00 0.00 0.02 0.01 0.05 0.02 0.00 0.00 0.01 0.00 0.00 0.00 0.00 0.00 0.00 0.00 0.00 0.01 0.00 0.00 0.00 0.00 0.00 0.00 0.00 0.00 0.00 0.00 0.00 0.00 0.00 0.00 0.00 0.00 0.00 0.00 0.00
0.00 0.00 0.00 0.00 0.02 0.05 0.09 0.16 0.11 0.00 0.00 0.00 0.00 0.00 0.01 0.00 0.00 0.00 0.00 0.00 0.01 0.01 0.00 0.00 0.00 0.00 0.00 0.00 0.00 0.00 0.00 0.00 0.00 0.00 0.00 0.00 0.00 0.00 0.00 0.00 0.00 0.00 0.00 0.00 0.00 0.00 0.00 0.00 0.00 0.00 0.00 0.00 0.00 0.00
0.00 0.01 0.00 0.00 0.00 0.03 0.04 0.01 0.07 0.02 0.00 0.00 0.00 0.01 0.01 0.00 0.00 0.00 0.00 0.00 0.00 0.00 0.00 0.00 0.00 0.00 0.00 0.00 0.00 0.00 0.00 0.00 0.00 0.00 0.00 0.00 0.00 0.00 0.00 0.00 0.00 0.00 0.00 0.00 0.00 0.00 0.00 0.00 0.00 0.00 0.00 0.00 0.00 0.00
0.00 0.04 0.01 0.00 0.00 0.03 0.04 0.00 0.02 0.02 0.02 0.01 0.01 0.03 0.02 0.00 0.00 0.00 0.00 0.00 0.00 0.00 0.00 0.00 0.00 0.00 0.00 0.00 0.00 0.00 0.00 0.00 0.00 0.00 0.00 0.00 0.00 0.00 0.00 0.00 0.00 0.00 0.00 0.00 0.00 0.00 0.00 0.00 0.00 0.00 0.00 0.00 0.00 0.00
0.01 0.07 0.03 0.02 0.02 0.01 0.00 0.00 0.00 0.01 0.02 0.02 0.02 0.02 0.00 0.00 0.00 0.00 0.00 0.00 0.00 0.00 0.00 0.00 0.00 0.00 0.00 0.00 0.00 0.00 0.00 0.00 0.00 0.00 0.00 0.00 0.00 0.00 0.00 0.00 0.00 0.00 0.00 0.00 0.00 0.00 0.00 0.00 0.00 0.00 0.00 0.00 0.00 0.00
0.06 0.02 0.01 0.01 0.01 0.01 0.00 0.00 0.00 0.00 0.01 0.01 0.02 0.01 0.00 0.00 0.00 0.00 0.00 0.00 0.00 0.00 0.00 0.00 0.00 0.00 0.00 0.01 0.00 0.00 0.00 0.00 0.00 0.00 0.00 0.00 0.00 0.00 0.00 0.00 0.00 0.00 0.00 0.00 0.00 0.00 0.00 0.00 0.00 0.00 0.00 0.00 0.00 0.00
0.05 0.00 0.00 0.00 0.01 0.01 0.00 0.00 0.00 0.00 0.00 0.00 0.02 0.00 0.00 0.00 0.00 0.00 0.00 0.00 0.00 0.00 0.00 0.00 0.00 0.00 0.00 0.00 0.01 0.00 0.00 0.00 0.00 0.00 0.00 0.00 0.00 0.00 0.00 0.00 0.00 0.01 0.00 0.00 0.00 0.00 0.00 0.00 0.00 0.00 0.00 0.00 0.00 0.00
0.01 0.00 0.00 0.00 0.00 0.00 0.00 0.00 0.00 0.00 0.00 0.00 0.01 0.00 0.00 0.00 0.00 0.00 0.00 0.00 0.00 0.00 0.00 0.00 0.00 0.00 0.00 0.00 0.00 0.00 0.00 0.00 0.00 0.00 0.00 0.00 0.00 0.00 0.00 0.00 0.00 0.00 0.00 0.00 0.00 0.00 0.00 0.00 0.00 0.00 0.00 0.00 0.00 0.00
0.00 0.00 0.00 0.00 0.00 0.00 0.00 0.00 0.00 0.00 0.00 0.00 0.00 0.00 0.00 0.00 0.00 0.00 0.00 0.00 0.00 0.00 0.00 0.00 0.00 0.00 0.00 0.00 0.00 0.00 0.00 0.00 0.00 0.00 0.00 0.00 0.00 0.00 0.00 0.00 0.00 0.00 0.00 0.00 0.00 0.00 0.00 0.00 0.00 0.00 0.00 0.00 0.00 0.00
0.00 0.00 0.00 0.00 0.00 0.00 0.00 0.00 0.00 0.00 0.00 0.00 0.00 0.00 0.00 0.00 0.01 0.00 0.00 0.00 0.00 0.00 0.00 0.00 0.00 0.00 0.00 0.00 0.00 0.00 0.00 0.00 0.00 0.00 0.00 0.00 0.00 0.00 0.00 0.01 0.00 0.00 0.00 0.00 0.00 0.00 0.00 0.00 0.00 0.00 0.00 0.00 0.00 0.00
0.00 0.00 0.00 0.00 0.00 0.01 0.00 0.00 0.00 0.00 0.00 0.00 0.00 0.00 0.00 0.01 0.02 0.01 0.00 0.00 0.00 0.00 0.00 0.00 0.00 0.00 0.00 0.00 0.00 0.00 0.01 0.01 0.00 0.00 0.00 0.00 0.00 0.00 0.00 0.00 0.01 0.00 0.00 0.00 0.00 0.01 0.03 0.02 0.02 0.01 0.00 0.00 0.00 0.00
0.00 0.00 0.00 0.00 0.00 0.01 0.00 0.00 0.00 0.00 0.00 0.00 0.00 0.00 0.00 0.02 0.03 0.02 0.00 0.00 0.00 0.01 0.00 0.01 0.00 0.00 0.01 0.01 0.01 0.01 0.01 0.00 0.01 0.01 0.01 0.00 0.00 0.00 0.00 0.00 0.00 0.00 0.00 0.00 0.00 0.00 0.01 0.02 0.01 0.01 0.01 0.00 0.00 0.00
0.00 0.00 0.00 0.00 0.02 0.01 0.00 0.00 0.01 0.01 0.01 0.01 0.01 0.00 0.01 0.01 0.01 0.02 0.02 0.02 0.02 0.01 0.01 0.00 0.00 0.01 0.01 0.01 0.02 0.01 0.02 0.01 0.00 0.01 0.00 0.00 0.00 0.00 0.00 0.00 0.00 0.01 0.01 0.00 0.00 0.00 0.00 0.00 0.01 0.01 0.00 0.00 0.00 0.00
0.01 0.01 0.02 0.04 0.02 0.01 0.00 0.02 0.02 0.03 0.03 0.05 0.02 0.02 0.03 0.03 0.01 0.02 0.03 0.03 0.02 0.01 0.00 0.00 0.00 0.00 0.00 0.00 0.00 0.01 0.01 0.01 0.01 0.02 0.02 0.01 0.01 0.02 0.01 0.01 0.01 0.02 0.01 0.01 0.01 0.01 0.00 0.01 0.00 0.00 0.00 0.00 0.00 0.00